<?xml version="1.0" encoding="UTF-8"?>
<gpx
  version="1.0"
  creator="pymavlink"
  xmlns:xsi="http://www.w3.org/2001/XMLSchema-instance"
  xmlns="http://www.topografix.com/GPX/1/0"
  xsi:schemaLocation="http://www.topografix.com/GPX/1/0 http://www.topografix.com/GPX/1/0/gpx.xsd">
<trk>
<trkseg>
<trkpt lat="-35.3632621" lon="149.165237">
  <ele>0.03</ele>
  <time>2026-08-27T16:44:21Z</time>
  <course>349.6</course>
  <speed>0.0</speed>
  <fix>3d</fix>
</trkpt>
<trkpt lat="-35.3632621" lon="149.165237">
  <ele>584.48</ele>
  <time>2026-08-27T16:44:21Z</time>
  <course>180.01</course>
  <speed>0.0</speed>
  <fix>3d</fix>
</trkpt>
<trkpt lat="-35.3632621" lon="149.165237">
  <ele>584.67</ele>
  <time>2026-08-27T16:44:21Z</time>
  <course>357.19</course>
  <speed>0.0</speed>
  <fix>3d</fix>
</trkpt>
<trkpt lat="-35.3632621" lon="149.165237">
  <ele>584.48</ele>
  <time>2026-08-27T16:44:21Z</time>
  <course>180.02</course>
  <speed>0.0</speed>
  <fix>3d</fix>
</trkpt>
<trkpt lat="-35.3632621" lon="149.165237">
  <ele>584.7</ele>
  <time>2026-08-27T16:44:21Z</time>
  <course>359.34</course>
  <speed>0.0</speed>
  <fix>3d</fix>
</trkpt>
<trkpt lat="-35.3632621" lon="149.165237">
  <ele>584.48</ele>
  <time>2026-08-27T16:44:21Z</time>
  <course>180.02</course>
  <speed>0.0</speed>
  <fix>3d</fix>
</trkpt>
<trkpt lat="-35.3632621" lon="149.165237">
  <ele>584.75</ele>
  <time>2026-08-27T16:44:21Z</time>
  <course>359.84</course>
  <speed>0.0</speed>
  <fix>3d</fix>
</trkpt>
<trkpt lat="-35.3632621" lon="149.165237">
  <ele>584.48</ele>
  <time>2026-08-27T16:44:21Z</time>
  <course>180.02</course>
  <speed>0.0</speed>
  <fix>3d</fix>
</trkpt>
<trkpt lat="-35.3632621" lon="149.165237">
  <ele>584.64</ele>
  <time>2026-08-27T16:44:21Z</time>
  <course>359.94</course>
  <speed>0.0</speed>
  <fix>3d</fix>
</trkpt>
<trkpt lat="-35.3632621" lon="149.165237">
  <ele>584.48</ele>
  <time>2026-08-27T16:44:21Z</time>
  <course>180.02</course>
  <speed>0.0</speed>
  <fix>3d</fix>
</trkpt>
<trkpt lat="-35.3632621" lon="149.165237">
  <ele>584.61</ele>
  <time>2026-08-27T16:44:21Z</time>
  <course>359.97</course>
  <speed>0.0</speed>
  <fix>3d</fix>
</trkpt>
<trkpt lat="-35.3632621" lon="149.165237">
  <ele>584.48</ele>
  <time>2026-08-27T16:44:21Z</time>
  <course>180.02</course>
  <speed>0.0</speed>
  <fix>3d</fix>
</trkpt>
<trkpt lat="-35.3632621" lon="149.165237">
  <ele>584.77</ele>
  <time>2026-08-27T16:44:21Z</time>
  <course>359.97</course>
  <speed>0.0</speed>
  <fix>3d</fix>
</trkpt>
<trkpt lat="-35.3632621" lon="149.165237">
  <ele>584.48</ele>
  <time>2026-08-27T16:44:21Z</time>
  <course>180.02</course>
  <speed>0.0</speed>
  <fix>3d</fix>
</trkpt>
<trkpt lat="-35.3632621" lon="149.165237">
  <ele>584.64</ele>
  <time>2026-08-27T16:44:21Z</time>
  <course>359.98</course>
  <speed>0.0</speed>
  <fix>3d</fix>
</trkpt>
<trkpt lat="-35.3632621" lon="149.165237">
  <ele>584.48</ele>
  <time>2026-08-27T16:44:21Z</time>
  <course>180.02</course>
  <speed>0.0</speed>
  <fix>3d</fix>
</trkpt>
<trkpt lat="-35.3632621" lon="149.165237">
  <ele>584.35</ele>
  <time>2026-08-27T16:44:21Z</time>
  <course>359.98</course>
  <speed>0.0</speed>
  <fix>3d</fix>
</trkpt>
<trkpt lat="-35.3632621" lon="149.165237">
  <ele>584.48</ele>
  <time>2026-08-27T16:44:21Z</time>
  <course>180.02</course>
  <speed>0.0</speed>
  <fix>3d</fix>
</trkpt>
<trkpt lat="-35.3632621" lon="149.165237">
  <ele>584.43</ele>
  <time>2026-08-27T16:44:21Z</time>
  <course>359.98</course>
  <speed>0.0</speed>
  <fix>3d</fix>
</trkpt>
<trkpt lat="-35.3632621" lon="149.165237">
  <ele>584.48</ele>
  <time>2026-08-27T16:44:21Z</time>
  <course>180.02</course>
  <speed>0.0</speed>
  <fix>3d</fix>
</trkpt>
<trkpt lat="-35.3632621" lon="149.165237">
  <ele>584.66</ele>
  <time>2026-08-27T16:44:21Z</time>
  <course>359.98</course>
  <speed>0.0</speed>
  <fix>3d</fix>
</trkpt>
<trkpt lat="-35.3632621" lon="149.165237">
  <ele>584.48</ele>
  <time>2026-08-27T16:44:21Z</time>
  <course>180.02</course>
  <speed>0.0</speed>
  <fix>3d</fix>
</trkpt>
<trkpt lat="-35.3632621" lon="149.165237">
  <ele>584.68</ele>
  <time>2026-08-27T16:44:21Z</time>
  <course>359.98</course>
  <speed>0.0</speed>
  <fix>3d</fix>
</trkpt>
<trkpt lat="-35.3632621" lon="149.165237">
  <ele>584.48</ele>
  <time>2026-08-27T16:44:21Z</time>
  <course>180.02</course>
  <speed>0.0</speed>
  <fix>3d</fix>
</trkpt>
<trkpt lat="-35.3632621" lon="149.165237">
  <ele>584.57</ele>
  <time>2026-08-27T16:44:21Z</time>
  <course>0.0</course>
  <speed>0.0</speed>
  <fix>3d</fix>
</trkpt>
<trkpt lat="-35.3632621" lon="149.165237">
  <ele>584.48</ele>
  <time>2026-08-27T16:44:21Z</time>
  <course>180.02</course>
  <speed>0.0</speed>
  <fix>3d</fix>
</trkpt>
<trkpt lat="-35.3632621" lon="149.165237">
  <ele>584.46</ele>
  <time>2026-08-27T16:44:21Z</time>
  <course>359.99</course>
  <speed>0.0</speed>
  <fix>3d</fix>
</trkpt>
<trkpt lat="-35.3632621" lon="149.165237">
  <ele>584.48</ele>
  <time>2026-08-27T16:44:21Z</time>
  <course>180.02</course>
  <speed>0.0</speed>
  <fix>3d</fix>
</trkpt>
<trkpt lat="-35.3632621" lon="149.165237">
  <ele>584.41</ele>
  <time>2026-08-27T16:44:21Z</time>
  <course>359.99</course>
  <speed>0.0</speed>
  <fix>3d</fix>
</trkpt>
<trkpt lat="-35.3632621" lon="149.165237">
  <ele>584.48</ele>
  <time>2026-08-27T16:44:21Z</time>
  <course>180.02</course>
  <speed>0.0</speed>
  <fix>3d</fix>
</trkpt>
<trkpt lat="-35.3632621" lon="149.165237">
  <ele>584.39</ele>
  <time>2026-08-27T16:44:21Z</time>
  <course>0.0</course>
  <speed>0.0</speed>
  <fix>3d</fix>
</trkpt>
<trkpt lat="-35.3632621" lon="149.165237">
  <ele>584.48</ele>
  <time>2026-08-27T16:44:21Z</time>
  <course>180.02</course>
  <speed>0.0</speed>
  <fix>3d</fix>
</trkpt>
<trkpt lat="-35.3632621" lon="149.165237">
  <ele>584.36</ele>
  <time>2026-08-27T16:44:21Z</time>
  <course>0.0</course>
  <speed>0.0</speed>
  <fix>3d</fix>
</trkpt>
<trkpt lat="-35.3632621" lon="149.165237">
  <ele>584.48</ele>
  <time>2026-08-27T16:44:21Z</time>
  <course>180.02</course>
  <speed>0.0</speed>
  <fix>3d</fix>
</trkpt>
<trkpt lat="-35.3632621" lon="149.165237">
  <ele>584.34</ele>
  <time>2026-08-27T16:44:21Z</time>
  <course>359.99</course>
  <speed>0.0</speed>
  <fix>3d</fix>
</trkpt>
<trkpt lat="-35.3632621" lon="149.165237">
  <ele>584.48</ele>
  <time>2026-08-27T16:44:21Z</time>
  <course>180.02</course>
  <speed>0.0</speed>
  <fix>3d</fix>
</trkpt>
<trkpt lat="-35.3632621" lon="149.165237">
  <ele>584.34</ele>
  <time>2026-08-27T16:44:21Z</time>
  <course>359.99</course>
  <speed>0.0</speed>
  <fix>3d</fix>
</trkpt>
<trkpt lat="-35.3632621" lon="149.165237">
  <ele>584.48</ele>
  <time>2026-08-27T16:44:21Z</time>
  <course>180.02</course>
  <speed>0.0</speed>
  <fix>3d</fix>
</trkpt>
<trkpt lat="-35.3632621" lon="149.165237">
  <ele>584.47</ele>
  <time>2026-08-27T16:44:21Z</time>
  <course>359.99</course>
  <speed>0.0</speed>
  <fix>3d</fix>
</trkpt>
<trkpt lat="-35.3632621" lon="149.165237">
  <ele>584.48</ele>
  <time>2026-08-27T16:44:21Z</time>
  <course>180.02</course>
  <speed>0.0</speed>
  <fix>3d</fix>
</trkpt>
<trkpt lat="-35.3632621" lon="149.165237">
  <ele>584.49</ele>
  <time>2026-08-27T16:44:21Z</time>
  <course>359.99</course>
  <speed>0.0</speed>
  <fix>3d</fix>
</trkpt>
<trkpt lat="-35.3632621" lon="149.165237">
  <ele>584.48</ele>
  <time>2026-08-27T16:44:21Z</time>
  <course>180.02</course>
  <speed>0.0</speed>
  <fix>3d</fix>
</trkpt>
<trkpt lat="-35.3632621" lon="149.165237">
  <ele>584.49</ele>
  <time>2026-08-27T16:44:21Z</time>
  <course>359.98</course>
  <speed>0.0</speed>
  <fix>3d</fix>
</trkpt>
<trkpt lat="-35.3632621" lon="149.165237">
  <ele>584.48</ele>
  <time>2026-08-27T16:44:21Z</time>
  <course>180.02</course>
  <speed>0.0</speed>
  <fix>3d</fix>
</trkpt>
<trkpt lat="-35.3632565" lon="149.165237">
  <ele>584.49</ele>
  <time>2026-08-27T16:44:21Z</time>
  <course>359.97</course>
  <speed>2.74</speed>
  <fix>3d</fix>
</trkpt>
<trkpt lat="-35.3632589" lon="149.165237">
  <ele>584.49</ele>
  <time>2026-08-27T16:44:21Z</time>
  <course>359.98</course>
  <speed>1.88</speed>
  <fix>3d</fix>
</trkpt>
<trkpt lat="-35.3631846" lon="149.165237">
  <ele>584.55</ele>
  <time>2026-08-27T16:44:21Z</time>
  <course>359.99</course>
  <speed>12.77</speed>
  <fix>3d</fix>
</trkpt>
<trkpt lat="-35.3632001" lon="149.165237">
  <ele>584.53</ele>
  <time>2026-08-27T16:44:21Z</time>
  <course>0.0</course>
  <speed>11.47</speed>
  <fix>3d</fix>
</trkpt>
<trkpt lat="-35.3630398" lon="149.165237">
  <ele>585.26</ele>
  <time>2026-08-27T16:44:21Z</time>
  <course>0.07</course>
  <speed>18.9</speed>
  <fix>3d</fix>
</trkpt>
<trkpt lat="-35.3630651" lon="149.165237">
  <ele>584.92</ele>
  <time>2026-08-27T16:44:21Z</time>
  <course>359.99</course>
  <speed>18.11</speed>
  <fix>3d</fix>
</trkpt>
<trkpt lat="-35.3628549" lon="149.1652367">
  <ele>592.62</ele>
  <time>2026-08-27T16:44:21Z</time>
  <course>359.87</course>
  <speed>23.260034393783684</speed>
  <fix>3d</fix>
</trkpt>
<trkpt lat="-35.3628858" lon="149.1652367">
  <ele>591.56</ele>
  <time>2026-08-27T16:44:21Z</time>
  <course>359.87</course>
  <speed>22.67</speed>
  <fix>3d</fix>
</trkpt>
<trkpt lat="-35.3626387" lon="149.1652361">
  <ele>601.19</ele>
  <time>2026-08-27T16:44:21Z</time>
  <course>359.97</course>
  <speed>25.360007886434104</speed>
  <fix>3d</fix>
</trkpt>
<trkpt lat="-35.362672" lon="149.165236">
  <ele>599.71</ele>
  <time>2026-08-27T16:44:21Z</time>
  <course>359.88</course>
  <speed>24.99</speed>
  <fix>3d</fix>
</trkpt>
<trkpt lat="-35.3624054" lon="149.1652357">
  <ele>610.53</ele>
  <time>2026-08-27T16:44:21Z</time>
  <course>359.81</course>
  <speed>26.510030177274412</speed>
  <fix>3d</fix>
</trkpt>
<trkpt lat="-35.3624408" lon="149.1652356">
  <ele>608.87</ele>
  <time>2026-08-27T16:44:21Z</time>
  <course>359.88</course>
  <speed>26.28</speed>
  <fix>3d</fix>
</trkpt>
<trkpt lat="-35.3621625" lon="149.1652346">
  <ele>619.39</ele>
  <time>2026-08-27T16:44:21Z</time>
  <course>358.93</course>
  <speed>27.950402501574104</speed>
  <fix>3d</fix>
</trkpt>
<trkpt lat="-35.3621992" lon="149.1652346">
  <ele>617.89</ele>
  <time>2026-08-27T16:44:21Z</time>
  <course>359.76</course>
  <speed>27.7</speed>
  <fix>3d</fix>
</trkpt>
<trkpt lat="-35.361909" lon="149.1652033">
  <ele>624.33</ele>
  <time>2026-08-27T16:44:21Z</time>
  <course>347.68</course>
  <speed>28.230800555421734</speed>
  <fix>3d</fix>
</trkpt>
<trkpt lat="-35.3619468" lon="149.1652131">
  <ele>623.39</ele>
  <time>2026-08-27T16:44:21Z</time>
  <course>347.32</course>
  <speed>28.22</speed>
  <fix>3d</fix>
</trkpt>
<trkpt lat="-35.3616854" lon="149.1650816">
  <ele>626.96</ele>
  <time>2026-08-27T16:44:21Z</time>
  <course>336.08</course>
  <speed>26.70869708540647</speed>
  <fix>3d</fix>
</trkpt>
<trkpt lat="-35.3617172" lon="149.1651008">
  <ele>626.5</ele>
  <time>2026-08-27T16:44:21Z</time>
  <course>333.56</course>
  <speed>26.93</speed>
  <fix>3d</fix>
</trkpt>
<trkpt lat="-35.3614981" lon="149.1649159">
  <ele>626.6</ele>
  <time>2026-08-27T16:44:21Z</time>
  <course>319.67</course>
  <speed>24.688622885855743</speed>
  <fix>3d</fix>
</trkpt>
<trkpt lat="-35.361523" lon="149.1649435">
  <ele>626.44</ele>
  <time>2026-08-27T16:44:21Z</time>
  <course>318.13</course>
  <speed>24.95</speed>
  <fix>3d</fix>
</trkpt>
<trkpt lat="-35.361365" lon="149.16471">
  <ele>625.46</ele>
  <time>2026-08-27T16:44:22Z</time>
  <course>302.84</course>
  <speed>23.706853439459234</speed>
  <fix>3d</fix>
</trkpt>
<trkpt lat="-35.3613809" lon="149.1647416">
  <ele>625.38</ele>
  <time>2026-08-27T16:44:22Z</time>
  <course>302.55</course>
  <speed>23.88</speed>
  <fix>3d</fix>
</trkpt>
<trkpt lat="-35.3612839" lon="149.1644664">
  <ele>626.04</ele>
  <time>2026-08-27T16:44:22Z</time>
  <course>288.79</course>
  <speed>23.704451058820155</speed>
  <fix>3d</fix>
</trkpt>
<trkpt lat="-35.3612928" lon="149.1645036">
  <ele>625.74</ele>
  <time>2026-08-27T16:44:22Z</time>
  <course>287.8</course>
  <speed>23.72</speed>
  <fix>3d</fix>
</trkpt>
<trkpt lat="-35.3612388" lon="149.1642131">
  <ele>628.41</ele>
  <time>2026-08-27T16:44:22Z</time>
  <course>280.55</course>
  <speed>23.60182408204925</speed>
  <fix>3d</fix>
</trkpt>
<trkpt lat="-35.3612434" lon="149.1642502">
  <ele>627.86</ele>
  <time>2026-08-27T16:44:22Z</time>
  <course>279.89</course>
  <speed>23.65</speed>
  <fix>3d</fix>
</trkpt>
<trkpt lat="-35.3612127" lon="149.1639516">
  <ele>631.68</ele>
  <time>2026-08-27T16:44:22Z</time>
  <course>275.68</course>
  <speed>23.854831795676112</speed>
  <fix>3d</fix>
</trkpt>
<trkpt lat="-35.3612154" lon="149.163991">
  <ele>630.98</ele>
  <time>2026-08-27T16:44:22Z</time>
  <course>275.4</course>
  <speed>23.79</speed>
  <fix>3d</fix>
</trkpt>
<trkpt lat="-35.3612001" lon="149.1636911">
  <ele>635.5</ele>
  <time>2026-08-27T16:44:22Z</time>
  <course>272.57</course>
  <speed>23.846242890652608</speed>
  <fix>3d</fix>
</trkpt>
<trkpt lat="-35.3612013" lon="149.163729">
  <ele>634.73</ele>
  <time>2026-08-27T16:44:22Z</time>
  <course>272.4</course>
  <speed>23.88</speed>
  <fix>3d</fix>
</trkpt>
<trkpt lat="-35.3611969" lon="149.1634276">
  <ele>639.29</ele>
  <time>2026-08-27T16:44:22Z</time>
  <course>268.11</course>
  <speed>23.73304236713026</speed>
  <fix>3d</fix>
</trkpt>
<trkpt lat="-35.3611969" lon="149.1634664">
  <ele>638.55</ele>
  <time>2026-08-27T16:44:22Z</time>
  <course>269.72</course>
  <speed>23.74</speed>
  <fix>3d</fix>
</trkpt>
<trkpt lat="-35.3612457" lon="149.1631697">
  <ele>642.62</ele>
  <time>2026-08-27T16:44:22Z</time>
  <course>241.34</course>
  <speed>25.467791423678655</speed>
  <fix>3d</fix>
</trkpt>
<trkpt lat="-35.3612323" lon="149.1632053">
  <ele>641.81</ele>
  <time>2026-08-27T16:44:22Z</time>
  <course>244.67</course>
  <speed>25.35</speed>
  <fix>3d</fix>
</trkpt>
<trkpt lat="-35.3614181" lon="149.1629905">
  <ele>649.02</ele>
  <time>2026-08-27T16:44:22Z</time>
  <course>217.81</course>
  <speed>24.57683462124445</speed>
  <fix>3d</fix>
</trkpt>
<trkpt lat="-35.3613904" lon="149.1630114">
  <ele>648.04</ele>
  <time>2026-08-27T16:44:22Z</time>
  <course>213.73</course>
  <speed>24.82</speed>
  <fix>3d</fix>
</trkpt>
<trkpt lat="-35.3615997" lon="149.1628534">
  <ele>650.86</ele>
  <time>2026-08-27T16:44:22Z</time>
  <course>207.89</course>
  <speed>23.503184890563233</speed>
  <fix>3d</fix>
</trkpt>
<trkpt lat="-35.3615719" lon="149.162869">
  <ele>650.54</ele>
  <time>2026-08-27T16:44:22Z</time>
  <course>207.82</course>
  <speed>23.51</speed>
  <fix>3d</fix>
</trkpt>
<trkpt lat="-35.3618086" lon="149.1628135">
  <ele>653.15</ele>
  <time>2026-08-27T16:44:22Z</time>
  <course>179.75</course>
  <speed>23.660874878161202</speed>
  <fix>3d</fix>
</trkpt>
<trkpt lat="-35.3617766" lon="149.1628112">
  <ele>652.47</ele>
  <time>2026-08-27T16:44:22Z</time>
  <course>178.55</course>
  <speed>23.68</speed>
  <fix>3d</fix>
</trkpt>
<trkpt lat="-35.3620143" lon="149.1628522">
  <ele>655.66</ele>
  <time>2026-08-27T16:44:22Z</time>
  <course>170.82</course>
  <speed>22.991689803057103</speed>
  <fix>3d</fix>
</trkpt>
<trkpt lat="-35.3619848" lon="149.1628438">
  <ele>655.21</ele>
  <time>2026-08-27T16:44:22Z</time>
  <course>169.12</course>
  <speed>23.09</speed>
  <fix>3d</fix>
</trkpt>
<trkpt lat="-35.3622118" lon="149.1629264">
  <ele>656.91</ele>
  <time>2026-08-27T16:44:22Z</time>
  <course>160.81</course>
  <speed>22.976131092940776</speed>
  <fix>3d</fix>
</trkpt>
<trkpt lat="-35.3621835" lon="149.1629123">
  <ele>656.43</ele>
  <time>2026-08-27T16:44:22Z</time>
  <course>159.46</course>
  <speed>23.0</speed>
  <fix>3d</fix>
</trkpt>
<trkpt lat="-35.362401" lon="149.1630274">
  <ele>658.3</ele>
  <time>2026-08-27T16:44:22Z</time>
  <course>155.86</course>
  <speed>22.972352948707712</speed>
  <fix>3d</fix>
</trkpt>
<trkpt lat="-35.3623738" lon="149.1630114">
  <ele>657.83</ele>
  <time>2026-08-27T16:44:22Z</time>
  <course>155.26</course>
  <speed>23.02</speed>
  <fix>3d</fix>
</trkpt>
<trkpt lat="-35.3625882" lon="149.1631368">
  <ele>659.5</ele>
  <time>2026-08-27T16:44:22Z</time>
  <course>154.16</course>
  <speed>23.052672296287042</speed>
  <fix>3d</fix>
</trkpt>
<trkpt lat="-35.3625607" lon="149.1631206">
  <ele>659.04</ele>
  <time>2026-08-27T16:44:22Z</time>
  <course>154.25</course>
  <speed>23.07</speed>
  <fix>3d</fix>
</trkpt>
<trkpt lat="-35.3627759" lon="149.1632444">
  <ele>660.61</ele>
  <time>2026-08-27T16:44:22Z</time>
  <course>155.01</course>
  <speed>23.04337865852141</speed>
  <fix>3d</fix>
</trkpt>
<trkpt lat="-35.3627483" lon="149.1632293">
  <ele>660.17</ele>
  <time>2026-08-27T16:44:22Z</time>
  <course>155.43</course>
  <speed>23.09</speed>
  <fix>3d</fix>
</trkpt>
<trkpt lat="-35.3629666" lon="149.1633437">
  <ele>661.47</ele>
  <time>2026-08-27T16:44:22Z</time>
  <course>157.16</course>
  <speed>23.061730203954777</speed>
  <fix>3d</fix>
</trkpt>
<trkpt lat="-35.3629385" lon="149.1633305">
  <ele>661.12</ele>
  <time>2026-08-27T16:44:22Z</time>
  <course>157.86</course>
  <speed>23.09</speed>
  <fix>3d</fix>
</trkpt>
<trkpt lat="-35.3631615" lon="149.1634317">
  <ele>662.24</ele>
  <time>2026-08-27T16:44:22Z</time>
  <course>160.07</course>
  <speed>23.01509939148645</speed>
  <fix>3d</fix>
</trkpt>
<trkpt lat="-35.3631325" lon="149.1634201">
  <ele>661.96</ele>
  <time>2026-08-27T16:44:22Z</time>
  <course>160.81</course>
  <speed>23.02</speed>
  <fix>3d</fix>
</trkpt>
<trkpt lat="-35.3633582" lon="149.1635068">
  <ele>662.83</ele>
  <time>2026-08-27T16:44:22Z</time>
  <course>162.82</course>
  <speed>22.925557790378843</speed>
  <fix>3d</fix>
</trkpt>
<trkpt lat="-35.3633291" lon="149.1634972">
  <ele>662.59</ele>
  <time>2026-08-27T16:44:22Z</time>
  <course>163.62</course>
  <speed>22.94</speed>
  <fix>3d</fix>
</trkpt>
<trkpt lat="-35.3635576" lon="149.163571">
  <ele>663.27</ele>
  <time>2026-08-27T16:44:22Z</time>
  <course>165.42</course>
  <speed>22.858171405429612</speed>
  <fix>3d</fix>
</trkpt>
<trkpt lat="-35.3635278" lon="149.1635628">
  <ele>663.06</ele>
  <time>2026-08-27T16:44:22Z</time>
  <course>166.15</course>
  <speed>22.87</speed>
  <fix>3d</fix>
</trkpt>
<trkpt lat="-35.3637571" lon="149.163625">
  <ele>663.56</ele>
  <time>2026-08-27T16:44:22Z</time>
  <course>167.6</course>
  <speed>22.802475742778455</speed>
  <fix>3d</fix>
</trkpt>
<trkpt lat="-35.3637279" lon="149.1636182">
  <ele>663.4</ele>
  <time>2026-08-27T16:44:22Z</time>
  <course>168.23</course>
  <speed>22.83</speed>
  <fix>3d</fix>
</trkpt>
<trkpt lat="-35.3639587" lon="149.1636725">
  <ele>663.82</ele>
  <time>2026-08-27T16:44:22Z</time>
  <course>169.08</course>
  <speed>22.757864574691535</speed>
  <fix>3d</fix>
</trkpt>
<trkpt lat="-35.3639293" lon="149.1636663">
  <ele>663.68</ele>
  <time>2026-08-27T16:44:22Z</time>
  <course>169.59</course>
  <speed>22.79</speed>
  <fix>3d</fix>
</trkpt>
<trkpt lat="-35.3641596" lon="149.1637151">
  <ele>664.03</ele>
  <time>2026-08-27T16:44:22Z</time>
  <course>170.0</course>
  <speed>22.678917522668495</speed>
  <fix>3d</fix>
</trkpt>
<trkpt lat="-35.3641306" lon="149.1637094">
  <ele>663.91</ele>
  <time>2026-08-27T16:44:22Z</time>
  <course>170.54</course>
  <speed>22.73</speed>
  <fix>3d</fix>
</trkpt>
<trkpt lat="-35.3643592" lon="149.1637741">
  <ele>664.01</ele>
  <time>2026-08-27T16:44:22Z</time>
  <course>159.48</course>
  <speed>23.290008587374974</speed>
  <fix>3d</fix>
</trkpt>
<trkpt lat="-35.3643304" lon="149.1637617">
  <ele>663.97</ele>
  <time>2026-08-27T16:44:22Z</time>
  <course>160.25</course>
  <speed>23.05</speed>
  <fix>3d</fix>
</trkpt>
<trkpt lat="-35.3645193" lon="149.1639446">
  <ele>665.52</ele>
  <time>2026-08-27T16:44:22Z</time>
  <course>130.49</course>
  <speed>23.93518330825983</speed>
  <fix>3d</fix>
</trkpt>
<trkpt lat="-35.3645001" lon="149.1639151">
  <ele>665.15</ele>
  <time>2026-08-27T16:44:22Z</time>
  <course>129.07</course>
  <speed>24.02</speed>
  <fix>3d</fix>
</trkpt>
<trkpt lat="-35.3646291" lon="149.1641693">
  <ele>665.96</ele>
  <time>2026-08-27T16:44:22Z</time>
  <course>117.7</course>
  <speed>23.350931458937566</speed>
  <fix>3d</fix>
</trkpt>
<trkpt lat="-35.3646159" lon="149.1641343">
  <ele>665.99</ele>
  <time>2026-08-27T16:44:22Z</time>
  <course>116.6</course>
  <speed>23.36</speed>
  <fix>3d</fix>
</trkpt>
<trkpt lat="-35.3646795" lon="149.1644143">
  <ele>665.43</ele>
  <time>2026-08-27T16:44:22Z</time>
  <course>98.22</course>
  <speed>23.075086132016928</speed>
  <fix>3d</fix>
</trkpt>
<trkpt lat="-35.3646765" lon="149.1643775">
  <ele>665.44</ele>
  <time>2026-08-27T16:44:22Z</time>
  <course>97.27</course>
  <speed>23.12</speed>
  <fix>3d</fix>
</trkpt>
<trkpt lat="-35.3646624" lon="149.1646685">
  <ele>664.63</ele>
  <time>2026-08-27T16:44:22Z</time>
  <course>75.28</course>
  <speed>23.68987336395026</speed>
  <fix>3d</fix>
</trkpt>
<trkpt lat="-35.3646703" lon="149.1646307">
  <ele>664.74</ele>
  <time>2026-08-27T16:44:22Z</time>
  <course>76.62</course>
  <speed>23.43</speed>
  <fix>3d</fix>
</trkpt>
<trkpt lat="-35.3645417" lon="149.1648809">
  <ele>665.34</ele>
  <time>2026-08-27T16:44:22Z</time>
  <course>46.38</course>
  <speed>23.827421178130038</speed>
  <fix>3d</fix>
</trkpt>
<trkpt lat="-35.3645636" lon="149.1648544">
  <ele>665.17</ele>
  <time>2026-08-27T16:44:22Z</time>
  <course>45.32</course>
  <speed>23.93</speed>
  <fix>3d</fix>
</trkpt>
<trkpt lat="-35.3643657" lon="149.1650271">
  <ele>665.18</ele>
  <time>2026-08-27T16:44:22Z</time>
  <course>28.94</course>
  <speed>23.31558277204325</speed>
  <fix>3d</fix>
</trkpt>
<trkpt lat="-35.364394" lon="149.16501">
  <ele>665.28</ele>
  <time>2026-08-27T16:44:22Z</time>
  <course>28.15</course>
  <speed>23.34</speed>
  <fix>3d</fix>
</trkpt>
<trkpt lat="-35.3641672" lon="149.165091">
  <ele>664.55</ele>
  <time>2026-08-27T16:44:22Z</time>
  <course>8.19</course>
  <speed>22.94230372042006</speed>
  <fix>3d</fix>
</trkpt>
<trkpt lat="-35.3641968" lon="149.1650873">
  <ele>664.57</ele>
  <time>2026-08-27T16:44:22Z</time>
  <course>7.38</course>
  <speed>23.04</speed>
  <fix>3d</fix>
</trkpt>
<trkpt lat="-35.3639624" lon="149.1650773">
  <ele>663.81</ele>
  <time>2026-08-27T16:44:22Z</time>
  <course>353.14</course>
  <speed>22.623642500711508</speed>
  <fix>3d</fix>
</trkpt>
<trkpt lat="-35.3639919" lon="149.1650838">
  <ele>663.87</ele>
  <time>2026-08-27T16:44:22Z</time>
  <course>351.85</course>
  <speed>22.69</speed>
  <fix>3d</fix>
</trkpt>
<trkpt lat="-35.363769" lon="149.1650101">
  <ele>663.19</ele>
  <time>2026-08-27T16:44:22Z</time>
  <course>341.85</course>
  <speed>22.350310959805462</speed>
  <fix>3d</fix>
</trkpt>
<trkpt lat="-35.3637957" lon="149.1650228">
  <ele>663.16</ele>
  <time>2026-08-27T16:44:22Z</time>
  <course>340.55</course>
  <speed>22.47</speed>
  <fix>3d</fix>
</trkpt>
<trkpt lat="-35.3635835" lon="149.1649113">
  <ele>662.81</ele>
  <time>2026-08-27T16:44:22Z</time>
  <course>335.44</course>
  <speed>22.295212490577434</speed>
  <fix>3d</fix>
</trkpt>
<trkpt lat="-35.36361" lon="149.1649275">
  <ele>662.73</ele>
  <time>2026-08-27T16:44:22Z</time>
  <course>334.73</course>
  <speed>22.35</speed>
  <fix>3d</fix>
</trkpt>
<trkpt lat="-35.3634047" lon="149.1648025">
  <ele>662.76</ele>
  <time>2026-08-27T16:44:22Z</time>
  <course>333.24</course>
  <speed>22.275731188897034</speed>
  <fix>3d</fix>
</trkpt>
<trkpt lat="-35.3634301" lon="149.1648186">
  <ele>662.63</ele>
  <time>2026-08-27T16:44:22Z</time>
  <course>333.33</course>
  <speed>22.35</speed>
  <fix>3d</fix>
</trkpt>
<trkpt lat="-35.3632228" lon="149.1646939">
  <ele>662.87</ele>
  <time>2026-08-27T16:44:22Z</time>
  <course>334.1</course>
  <speed>22.449178158676546</speed>
  <fix>3d</fix>
</trkpt>
<trkpt lat="-35.3632497" lon="149.1647097">
  <ele>662.73</ele>
  <time>2026-08-27T16:44:22Z</time>
  <course>334.57</course>
  <speed>22.43</speed>
  <fix>3d</fix>
</trkpt>
<trkpt lat="-35.3630382" lon="149.1645952">
  <ele>663.14</ele>
  <time>2026-08-27T16:44:22Z</time>
  <course>336.66</course>
  <speed>22.48419889611369</speed>
  <fix>3d</fix>
</trkpt>
<trkpt lat="-35.3630653" lon="149.1646087">
  <ele>662.98</ele>
  <time>2026-08-27T16:44:22Z</time>
  <course>337.43</course>
  <speed>22.51</speed>
  <fix>3d</fix>
</trkpt>
<trkpt lat="-35.362848" lon="149.1645082">
  <ele>663.43</ele>
  <time>2026-08-27T16:44:22Z</time>
  <course>339.76</course>
  <speed>22.54739452797152</speed>
  <fix>3d</fix>
</trkpt>
<trkpt lat="-35.3628762" lon="149.1645198">
  <ele>663.24</ele>
  <time>2026-08-27T16:44:22Z</time>
  <course>340.68</course>
  <speed>22.53</speed>
  <fix>3d</fix>
</trkpt>
<trkpt lat="-35.3626547" lon="149.1644342">
  <ele>663.6</ele>
  <time>2026-08-27T16:44:22Z</time>
  <course>342.9</course>
  <speed>22.565743949624174</speed>
  <fix>3d</fix>
</trkpt>
<trkpt lat="-35.3626834" lon="149.164444">
  <ele>663.45</ele>
  <time>2026-08-27T16:44:22Z</time>
  <course>343.72</course>
  <speed>22.56</speed>
  <fix>3d</fix>
</trkpt>
<trkpt lat="-35.3624581" lon="149.164372">
  <ele>663.78</ele>
  <time>2026-08-27T16:44:23Z</time>
  <course>345.58</course>
  <speed>22.60448185648147</speed>
  <fix>3d</fix>
</trkpt>
<trkpt lat="-35.3624875" lon="149.1643802">
  <ele>663.66</ele>
  <time>2026-08-27T16:44:23Z</time>
  <course>346.4</course>
  <speed>22.57</speed>
  <fix>3d</fix>
</trkpt>
<trkpt lat="-35.36226" lon="149.1643196">
  <ele>663.94</ele>
  <time>2026-08-27T16:44:23Z</time>
  <course>347.97</course>
  <speed>22.582916109307053</speed>
  <fix>3d</fix>
</trkpt>
<trkpt lat="-35.3622893" lon="149.1643265">
  <ele>663.84</ele>
  <time>2026-08-27T16:44:23Z</time>
  <course>348.56</course>
  <speed>22.59</speed>
  <fix>3d</fix>
</trkpt>
<trkpt lat="-35.3620605" lon="149.1642752">
  <ele>664.05</ele>
  <time>2026-08-27T16:44:23Z</time>
  <course>349.69</course>
  <speed>22.59338177431612</speed>
  <fix>3d</fix>
</trkpt>
<trkpt lat="-35.3620898" lon="149.164281">
  <ele>663.95</ele>
  <time>2026-08-27T16:44:23Z</time>
  <course>350.22</course>
  <speed>22.61</speed>
  <fix>3d</fix>
</trkpt>
<trkpt lat="-35.3618601" lon="149.1642358">
  <ele>664.15</ele>
  <time>2026-08-27T16:44:23Z</time>
  <course>350.77</course>
  <speed>22.556198704568995</speed>
  <fix>3d</fix>
</trkpt>
<trkpt lat="-35.3618892" lon="149.1642412">
  <ele>664.05</ele>
  <time>2026-08-27T16:44:23Z</time>
  <course>351.23</course>
  <speed>22.59</speed>
  <fix>3d</fix>
</trkpt>
<trkpt lat="-35.3616595" lon="149.1641993">
  <ele>664.21</ele>
  <time>2026-08-27T16:44:23Z</time>
  <course>351.49</course>
  <speed>22.57229496528875</speed>
  <fix>3d</fix>
</trkpt>
<trkpt lat="-35.3616886" lon="149.1642044">
  <ele>664.12</ele>
  <time>2026-08-27T16:44:23Z</time>
  <course>351.74</course>
  <speed>22.59</speed>
  <fix>3d</fix>
</trkpt>
<trkpt lat="-35.3614577" lon="149.1641641">
  <ele>664.28</ele>
  <time>2026-08-27T16:44:23Z</time>
  <course>351.8</course>
  <speed>22.601991062736044</speed>
  <fix>3d</fix>
</trkpt>
<trkpt lat="-35.3614873" lon="149.1641693">
  <ele>664.19</ele>
  <time>2026-08-27T16:44:23Z</time>
  <course>351.99</course>
  <speed>22.62</speed>
  <fix>3d</fix>
</trkpt>
<trkpt lat="-35.3612583" lon="149.16412">
  <ele>664.18</ele>
  <time>2026-08-27T16:44:23Z</time>
  <course>345.36</course>
  <speed>22.849087509132616</speed>
  <fix>3d</fix>
</trkpt>
<trkpt lat="-35.3612868" lon="149.1641292">
  <ele>664.17</ele>
  <time>2026-08-27T16:44:23Z</time>
  <course>345.64</course>
  <speed>22.75</speed>
  <fix>3d</fix>
</trkpt>
<trkpt lat="-35.3610854" lon="149.1639715">
  <ele>665.2</ele>
  <time>2026-08-27T16:44:23Z</time>
  <course>312.89</course>
  <speed>24.055737361386367</speed>
  <fix>3d</fix>
</trkpt>
<trkpt lat="-35.3611066" lon="149.1639997">
  <ele>664.84</ele>
  <time>2026-08-27T16:44:23Z</time>
  <course>312.69</course>
  <speed>24.07</speed>
  <fix>3d</fix>
</trkpt>
<trkpt lat="-35.3609706" lon="149.163751">
  <ele>666.25</ele>
  <time>2026-08-27T16:44:23Z</time>
  <course>300.25</course>
  <speed>23.389538259657883</speed>
  <fix>3d</fix>
</trkpt>
<trkpt lat="-35.3609845" lon="149.1637843">
  <ele>666.26</ele>
  <time>2026-08-27T16:44:23Z</time>
  <course>298.72</course>
  <speed>23.47</speed>
  <fix>3d</fix>
</trkpt>
<trkpt lat="-35.3609116" lon="149.1635065">
  <ele>665.91</ele>
  <time>2026-08-27T16:44:23Z</time>
  <course>280.02</course>
  <speed>23.02611777959976</speed>
  <fix>3d</fix>
</trkpt>
<trkpt lat="-35.3609158" lon="149.1635445">
  <ele>665.95</ele>
  <time>2026-08-27T16:44:23Z</time>
  <course>279.08</course>
  <speed>22.99</speed>
  <fix>3d</fix>
</trkpt>
<trkpt lat="-35.3609171" lon="149.1632584">
  <ele>665.56</ele>
  <time>2026-08-27T16:44:23Z</time>
  <course>264.01</course>
  <speed>22.52671525100808</speed>
  <fix>3d</fix>
</trkpt>
<trkpt lat="-35.3609129" lon="149.1632947">
  <ele>665.66</ele>
  <time>2026-08-27T16:44:23Z</time>
  <course>263.43</course>
  <speed>22.53</speed>
  <fix>3d</fix>
</trkpt>
<trkpt lat="-35.3610001" lon="149.1630284">
  <ele>665.1</ele>
  <time>2026-08-27T16:44:23Z</time>
  <course>232.77</course>
  <speed>23.507685977143733</speed>
  <fix>3d</fix>
</trkpt>
<trkpt lat="-35.3609815" lon="149.1630595">
  <ele>665.04</ele>
  <time>2026-08-27T16:44:23Z</time>
  <course>233.91</course>
  <speed>23.44</speed>
  <fix>3d</fix>
</trkpt>
<trkpt lat="-35.3611632" lon="149.1628701">
  <ele>665.83</ele>
  <time>2026-08-27T16:44:23Z</time>
  <course>214.45</course>
  <speed>23.0471256342304</speed>
  <fix>3d</fix>
</trkpt>
<trkpt lat="-35.3611379" lon="149.1628891">
  <ele>665.81</ele>
  <time>2026-08-27T16:44:23Z</time>
  <course>212.82</course>
  <speed>23.19</speed>
  <fix>3d</fix>
</trkpt>
<trkpt lat="-35.3613548" lon="149.1627778">
  <ele>665.1</ele>
  <time>2026-08-27T16:44:23Z</time>
  <course>195.17</course>
  <speed>22.763270854602595</speed>
  <fix>3d</fix>
</trkpt>
<trkpt lat="-35.3613249" lon="149.162786">
  <ele>665.2</ele>
  <time>2026-08-27T16:44:23Z</time>
  <course>194.5</course>
  <speed>22.75</speed>
  <fix>3d</fix>
</trkpt>
<trkpt lat="-35.361556" lon="149.1627668">
  <ele>664.56</ele>
  <time>2026-08-27T16:44:23Z</time>
  <course>178.42</course>
  <speed>22.442000802067536</speed>
  <fix>3d</fix>
</trkpt>
<trkpt lat="-35.3615268" lon="149.1627638">
  <ele>664.6</ele>
  <time>2026-08-27T16:44:23Z</time>
  <course>176.98</course>
  <speed>22.53</speed>
  <fix>3d</fix>
</trkpt>
<trkpt lat="-35.3617539" lon="149.1628145">
  <ele>663.85</ele>
  <time>2026-08-27T16:44:23Z</time>
  <course>166.09</course>
  <speed>22.270541080090535</speed>
  <fix>3d</fix>
</trkpt>
<trkpt lat="-35.3617251" lon="149.1628037">
  <ele>663.89</ele>
  <time>2026-08-27T16:44:23Z</time>
  <course>164.81</course>
  <speed>22.3</speed>
  <fix>3d</fix>
</trkpt>
<trkpt lat="-35.3619396" lon="149.1628994">
  <ele>663.41</ele>
  <time>2026-08-27T16:44:23Z</time>
  <course>158.27</course>
  <speed>22.09780305822278</speed>
  <fix>3d</fix>
</trkpt>
<trkpt lat="-35.3619134" lon="149.162885">
  <ele>663.39</ele>
  <time>2026-08-27T16:44:23Z</time>
  <course>157.35</course>
  <speed>22.2</speed>
  <fix>3d</fix>
</trkpt>
<trkpt lat="-35.362121" lon="149.1630023">
  <ele>663.18</ele>
  <time>2026-08-27T16:44:23Z</time>
  <course>154.71</course>
  <speed>22.17469729218417</speed>
  <fix>3d</fix>
</trkpt>
<trkpt lat="-35.3620951" lon="149.1629864">
  <ele>663.12</ele>
  <time>2026-08-27T16:44:23Z</time>
  <course>154.39</course>
  <speed>22.22</speed>
  <fix>3d</fix>
</trkpt>
<trkpt lat="-35.3623009" lon="149.1631077">
  <ele>663.16</ele>
  <time>2026-08-27T16:44:23Z</time>
  <course>154.44</course>
  <speed>22.269766500796546</speed>
  <fix>3d</fix>
</trkpt>
<trkpt lat="-35.3622754" lon="149.1630927">
  <ele>663.05</ele>
  <time>2026-08-27T16:44:23Z</time>
  <course>154.69</course>
  <speed>22.36</speed>
  <fix>3d</fix>
</trkpt>
<trkpt lat="-35.3624862" lon="149.1632091">
  <ele>663.29</ele>
  <time>2026-08-27T16:44:23Z</time>
  <course>156.19</course>
  <speed>22.461709641075853</speed>
  <fix>3d</fix>
</trkpt>
<trkpt lat="-35.3624588" lon="149.1631949">
  <ele>663.17</ele>
  <time>2026-08-27T16:44:23Z</time>
  <course>156.68</course>
  <speed>22.46</speed>
  <fix>3d</fix>
</trkpt>
<trkpt lat="-35.3626736" lon="149.1632995">
  <ele>663.5</ele>
  <time>2026-08-27T16:44:23Z</time>
  <course>158.92</course>
  <speed>22.501219966926236</speed>
  <fix>3d</fix>
</trkpt>
<trkpt lat="-35.3626462" lon="149.1632872">
  <ele>663.39</ele>
  <time>2026-08-27T16:44:23Z</time>
  <course>159.5</course>
  <speed>22.53</speed>
  <fix>3d</fix>
</trkpt>
<trkpt lat="-35.3628668" lon="149.1633788">
  <ele>663.68</ele>
  <time>2026-08-27T16:44:23Z</time>
  <course>161.8</course>
  <speed>22.614528515978396</speed>
  <fix>3d</fix>
</trkpt>
<trkpt lat="-35.3628379" lon="149.1633681">
  <ele>663.57</ele>
  <time>2026-08-27T16:44:23Z</time>
  <course>162.49</course>
  <speed>22.58</speed>
  <fix>3d</fix>
</trkpt>
<trkpt lat="-35.3630614" lon="149.1634461">
  <ele>663.86</ele>
  <time>2026-08-27T16:44:23Z</time>
  <course>164.52</course>
  <speed>22.56837832011862</speed>
  <fix>3d</fix>
</trkpt>
<trkpt lat="-35.3630328" lon="149.1634374">
  <ele>663.78</ele>
  <time>2026-08-27T16:44:23Z</time>
  <course>165.14</course>
  <speed>22.58</speed>
  <fix>3d</fix>
</trkpt>
<trkpt lat="-35.3632591" lon="149.1635039">
  <ele>663.98</ele>
  <time>2026-08-27T16:44:23Z</time>
  <course>166.83</course>
  <speed>22.597842817401844</speed>
  <fix>3d</fix>
</trkpt>
<trkpt lat="-35.3632298" lon="149.1634963">
  <ele>663.93</ele>
  <time>2026-08-27T16:44:23Z</time>
  <course>167.34</course>
  <speed>22.58</speed>
  <fix>3d</fix>
</trkpt>
<trkpt lat="-35.363458" lon="149.1635536">
  <ele>664.11</ele>
  <time>2026-08-27T16:44:23Z</time>
  <course>168.68</course>
  <speed>22.59009517465564</speed>
  <fix>3d</fix>
</trkpt>
<trkpt lat="-35.3634287" lon="149.163547">
  <ele>664.04</ele>
  <time>2026-08-27T16:44:23Z</time>
  <course>169.09</course>
  <speed>22.61</speed>
  <fix>3d</fix>
</trkpt>
<trkpt lat="-35.3636581" lon="149.1635979">
  <ele>664.21</ele>
  <time>2026-08-27T16:44:23Z</time>
  <course>169.8</course>
  <speed>22.595249500724705</speed>
  <fix>3d</fix>
</trkpt>
<trkpt lat="-35.3636283" lon="149.1635918">
  <ele>664.14</ele>
  <time>2026-08-27T16:44:23Z</time>
  <course>170.11</course>
  <speed>22.59</speed>
  <fix>3d</fix>
</trkpt>
<trkpt lat="-35.363858" lon="149.1636388">
  <ele>664.27</ele>
  <time>2026-08-27T16:44:23Z</time>
  <course>170.53</course>
  <speed>22.572168703959306</speed>
  <fix>3d</fix>
</trkpt>
<trkpt lat="-35.3638287" lon="149.1636331">
  <ele>664.19</ele>
  <time>2026-08-27T16:44:23Z</time>
  <course>170.69</course>
  <speed>22.6</speed>
  <fix>3d</fix>
</trkpt>
<trkpt lat="-35.3640583" lon="149.1636783">
  <ele>664.3</ele>
  <time>2026-08-27T16:44:23Z</time>
  <course>170.84</course>
  <speed>22.610426798271632</speed>
  <fix>3d</fix>
</trkpt>
<trkpt lat="-35.3640292" lon="149.1636728">
  <ele>664.21</ele>
  <time>2026-08-27T16:44:23Z</time>
  <course>170.94</course>
  <speed>22.63</speed>
  <fix>3d</fix>
</trkpt>
<trkpt lat="-35.364259" lon="149.1637193">
  <ele>664.34</ele>
  <time>2026-08-27T16:44:23Z</time>
  <course>167.67</course>
  <speed>22.622913163427917</speed>
  <fix>3d</fix>
</trkpt>
<trkpt lat="-35.3642301" lon="149.1637126">
  <ele>664.26</ele>
  <time>2026-08-27T16:44:23Z</time>
  <course>169.35</course>
  <speed>22.65</speed>
  <fix>3d</fix>
</trkpt>
<trkpt lat="-35.3644463" lon="149.1638291">
  <ele>664.51</ele>
  <time>2026-08-27T16:44:23Z</time>
  <course>141.77</course>
  <speed>24.063268689020614</speed>
  <fix>3d</fix>
</trkpt>
<trkpt lat="-35.3644216" lon="149.163806">
  <ele>664.3</ele>
  <time>2026-08-27T16:44:23Z</time>
  <course>143.08</course>
  <speed>23.96</speed>
  <fix>3d</fix>
</trkpt>
<trkpt lat="-35.3645777" lon="149.1640383">
  <ele>666.16</ele>
  <time>2026-08-27T16:44:23Z</time>
  <course>125.28</course>
  <speed>23.671977103740197</speed>
  <fix>3d</fix>
</trkpt>
<trkpt lat="-35.3645613" lon="149.1640053">
  <ele>666.04</ele>
  <time>2026-08-27T16:44:23Z</time>
  <course>123.01</course>
  <speed>23.74</speed>
  <fix>3d</fix>
</trkpt>
<trkpt lat="-35.3646591" lon="149.1642733">
  <ele>665.89</ele>
  <time>2026-08-27T16:44:23Z</time>
  <course>106.9</course>
  <speed>23.091747443621497</speed>
  <fix>3d</fix>
</trkpt>
<trkpt lat="-35.3646514" lon="149.1642365">
  <ele>665.91</ele>
  <time>2026-08-27T16:44:23Z</time>
  <course>106.27</course>
  <speed>23.09</speed>
  <fix>3d</fix>
</trkpt>
<trkpt lat="-35.3646748" lon="149.1645235">
  <ele>665.64</ele>
  <time>2026-08-27T16:44:23Z</time>
  <course>89.09</course>
  <speed>22.70504129042711</speed>
  <fix>3d</fix>
</trkpt>
<trkpt lat="-35.3646763" lon="149.164486">
  <ele>665.69</ele>
  <time>2026-08-27T16:44:23Z</time>
  <course>88.6</course>
  <speed>22.69</speed>
  <fix>3d</fix>
</trkpt>
<trkpt lat="-35.3646103" lon="149.1647614">
  <ele>665.41</ele>
  <time>2026-08-27T16:44:23Z</time>
  <course>58.86</course>
  <speed>23.480583468048657</speed>
  <fix>3d</fix>
</trkpt>
<trkpt lat="-35.3646262" lon="149.1647292">
  <ele>665.32</ele>
  <time>2026-08-27T16:44:23Z</time>
  <course>59.98</course>
  <speed>23.48</speed>
  <fix>3d</fix>
</trkpt>
<trkpt lat="-35.3644594" lon="149.1649407">
  <ele>666.08</ele>
  <time>2026-08-27T16:44:23Z</time>
  <course>39.24</course>
  <speed>23.152403762892526</speed>
  <fix>3d</fix>
</trkpt>
<trkpt lat="-35.3644846" lon="149.1649183">
  <ele>666.08</ele>
  <time>2026-08-27T16:44:23Z</time>
  <course>37.88</course>
  <speed>23.22</speed>
  <fix>3d</fix>
</trkpt>
<trkpt lat="-35.3642763" lon="149.1650493">
  <ele>665.58</ele>
  <time>2026-08-27T16:44:23Z</time>
  <course>19.48</course>
  <speed>22.628919549991775</speed>
  <fix>3d</fix>
</trkpt>
<trkpt lat="-35.3643048" lon="149.1650389">
  <ele>665.63</ele>
  <time>2026-08-27T16:44:23Z</time>
  <course>18.79</course>
  <speed>22.7</speed>
  <fix>3d</fix>
</trkpt>
<trkpt lat="-35.3640751" lon="149.1650776">
  <ele>664.85</ele>
  <time>2026-08-27T16:44:23Z</time>
  <course>1.48</course>
  <speed>22.436488138743993</speed>
  <fix>3d</fix>
</trkpt>
<trkpt lat="-35.3641053" lon="149.1650788">
  <ele>664.92</ele>
  <time>2026-08-27T16:44:23Z</time>
  <course>0.29</course>
  <speed>22.48</speed>
  <fix>3d</fix>
</trkpt>
<trkpt lat="-35.3638787" lon="149.1650404">
  <ele>664.17</ele>
  <time>2026-08-27T16:44:23Z</time>
  <course>348.08</course>
  <speed>22.134527327232448</speed>
  <fix>3d</fix>
</trkpt>
<trkpt lat="-35.3639063" lon="149.1650495">
  <ele>664.19</ele>
  <time>2026-08-27T16:44:23Z</time>
  <course>346.75</course>
  <speed>22.25</speed>
  <fix>3d</fix>
</trkpt>
<trkpt lat="-35.3636903" lon="149.16496">
  <ele>663.54</ele>
  <time>2026-08-27T16:44:24Z</time>
  <course>339.18</course>
  <speed>22.070274126072835</speed>
  <fix>3d</fix>
</trkpt>
<trkpt lat="-35.3637169" lon="149.1649742">
  <ele>663.55</ele>
  <time>2026-08-27T16:44:24Z</time>
  <course>338.11</course>
  <speed>22.14</speed>
  <fix>3d</fix>
</trkpt>
<trkpt lat="-35.3635103" lon="149.1648591">
  <ele>663.25</ele>
  <time>2026-08-27T16:44:24Z</time>
  <course>334.71</course>
  <speed>22.080355522500085</speed>
  <fix>3d</fix>
</trkpt>
<trkpt lat="-35.3635354" lon="149.1648746">
  <ele>663.18</ele>
  <time>2026-08-27T16:44:24Z</time>
  <course>334.4</course>
  <speed>22.18</speed>
  <fix>3d</fix>
</trkpt>
<trkpt lat="-35.3633292" lon="149.1647515">
  <ele>663.13</ele>
  <time>2026-08-27T16:44:24Z</time>
  <course>333.96</course>
  <speed>22.292142113309794</speed>
  <fix>3d</fix>
</trkpt>
<trkpt lat="-35.3633556" lon="149.1647674">
  <ele>663.03</ele>
  <time>2026-08-27T16:44:24Z</time>
  <course>334.21</course>
  <speed>22.3</speed>
  <fix>3d</fix>
</trkpt>
<trkpt lat="-35.3631471" lon="149.1646494">
  <ele>663.27</ele>
  <time>2026-08-27T16:44:24Z</time>
  <course>335.6</course>
  <speed>22.38132480439887</speed>
  <fix>3d</fix>
</trkpt>
<trkpt lat="-35.3631735" lon="149.1646637">
  <ele>663.14</ele>
  <time>2026-08-27T16:44:24Z</time>
  <course>336.15</course>
  <speed>22.42</speed>
  <fix>3d</fix>
</trkpt>
<trkpt lat="-35.3629588" lon="149.1645567">
  <ele>663.44</ele>
  <time>2026-08-27T16:44:24Z</time>
  <course>338.41</course>
  <speed>22.5553031458236</speed>
  <fix>3d</fix>
</trkpt>
<trkpt lat="-35.3629867" lon="149.1645692">
  <ele>663.28</ele>
  <time>2026-08-27T16:44:24Z</time>
  <course>339.17</course>
  <speed>22.53</speed>
  <fix>3d</fix>
</trkpt>
<trkpt lat="-35.3627677" lon="149.1644771">
  <ele>663.67</ele>
  <time>2026-08-27T16:44:24Z</time>
  <course>341.49</course>
  <speed>22.54906871691157</speed>
  <fix>3d</fix>
</trkpt>
<trkpt lat="-35.3627955" lon="149.1644875">
  <ele>663.5</ele>
  <time>2026-08-27T16:44:24Z</time>
  <course>342.28</course>
  <speed>22.57</speed>
  <fix>3d</fix>
</trkpt>
<trkpt lat="-35.3625712" lon="149.1644086">
  <ele>663.79</ele>
  <time>2026-08-27T16:44:24Z</time>
  <course>344.44</course>
  <speed>22.65083883656409</speed>
  <fix>3d</fix>
</trkpt>
<trkpt lat="-35.3626007" lon="149.1644177">
  <ele>663.65</ele>
  <time>2026-08-27T16:44:24Z</time>
  <course>345.11</course>
  <speed>22.6</speed>
  <fix>3d</fix>
</trkpt>
<trkpt lat="-35.3623744" lon="149.1643521">
  <ele>663.97</ele>
  <time>2026-08-27T16:44:24Z</time>
  <course>347.08</course>
  <speed>22.580312221047784</speed>
  <fix>3d</fix>
</trkpt>
<trkpt lat="-35.3624035" lon="149.1643595">
  <ele>663.83</ele>
  <time>2026-08-27T16:44:24Z</time>
  <course>347.68</course>
  <speed>22.58</speed>
  <fix>3d</fix>
</trkpt>
<trkpt lat="-35.3621743" lon="149.1643041">
  <ele>664.02</ele>
  <time>2026-08-27T16:44:24Z</time>
  <course>349.08</course>
  <speed>22.655904307707516</speed>
  <fix>3d</fix>
</trkpt>
<trkpt lat="-35.3622044" lon="149.1643106">
  <ele>663.92</ele>
  <time>2026-08-27T16:44:24Z</time>
  <course>349.56</course>
  <speed>22.61</speed>
  <fix>3d</fix>
</trkpt>
<trkpt lat="-35.3619749" lon="149.1642628">
  <ele>664.13</ele>
  <time>2026-08-27T16:44:24Z</time>
  <course>350.44</course>
  <speed>22.60370102438979</speed>
  <fix>3d</fix>
</trkpt>
<trkpt lat="-35.3620042" lon="149.1642685">
  <ele>664.04</ele>
  <time>2026-08-27T16:44:24Z</time>
  <course>350.79</course>
  <speed>22.62</speed>
  <fix>3d</fix>
</trkpt>
<trkpt lat="-35.3617737" lon="149.164225">
  <ele>664.2</ele>
  <time>2026-08-27T16:44:24Z</time>
  <course>351.26</course>
  <speed>22.623450223164458</speed>
  <fix>3d</fix>
</trkpt>
<trkpt lat="-35.3618035" lon="149.1642304">
  <ele>664.12</ele>
  <time>2026-08-27T16:44:24Z</time>
  <course>351.52</course>
  <speed>22.62</speed>
  <fix>3d</fix>
</trkpt>
<trkpt lat="-35.3615727" lon="149.1641893">
  <ele>664.25</ele>
  <time>2026-08-27T16:44:24Z</time>
  <course>351.76</course>
  <speed>22.61610488125663</speed>
  <fix>3d</fix>
</trkpt>
<trkpt lat="-35.3616021" lon="149.1641945">
  <ele>664.18</ele>
  <time>2026-08-27T16:44:24Z</time>
  <course>351.88</course>
  <speed>22.65</speed>
  <fix>3d</fix>
</trkpt>
<trkpt lat="-35.3613709" lon="149.1641539">
  <ele>664.29</ele>
  <time>2026-08-27T16:44:24Z</time>
  <course>349.86</course>
  <speed>22.657294631089563</speed>
  <fix>3d</fix>
</trkpt>
<trkpt lat="-35.3614006" lon="149.1641593">
  <ele>664.22</ele>
  <time>2026-08-27T16:44:24Z</time>
  <course>351.69</course>
  <speed>22.67</speed>
  <fix>3d</fix>
</trkpt>
<trkpt lat="-35.3611766" lon="149.1640711">
  <ele>664.18</ele>
  <time>2026-08-27T16:44:24Z</time>
  <course>328.51</course>
  <speed>23.971391282109597</speed>
  <fix>3d</fix>
</trkpt>
<trkpt lat="-35.3612037" lon="149.1640896">
  <ele>664.11</ele>
  <time>2026-08-27T16:44:24Z</time>
  <course>330.3</course>
  <speed>23.74</speed>
  <fix>3d</fix>
</trkpt>
<trkpt lat="-35.361035" lon="149.1638727">
  <ele>666.04</ele>
  <time>2026-08-27T16:44:24Z</time>
  <course>307.74</course>
  <speed>23.875202616941287</speed>
  <fix>3d</fix>
</trkpt>
<trkpt lat="-35.3610524" lon="149.1639042">
  <ele>665.89</ele>
  <time>2026-08-27T16:44:24Z</time>
  <course>305.06</course>
  <speed>23.93</speed>
  <fix>3d</fix>
</trkpt>
<trkpt lat="-35.3609422" lon="149.1636414">
  <ele>666.01</ele>
  <time>2026-08-27T16:44:24Z</time>
  <course>290.59</course>
  <speed>23.191897291942286</speed>
  <fix>3d</fix>
</trkpt>
<trkpt lat="-35.3609517" lon="149.163677">
  <ele>666.09</ele>
  <time>2026-08-27T16:44:24Z</time>
  <course>289.89</course>
  <speed>23.19</speed>
  <fix>3d</fix>
</trkpt>
<trkpt lat="-35.3609161" lon="149.1633921">
  <ele>665.85</ele>
  <time>2026-08-27T16:44:24Z</time>
  <course>273.13</course>
  <speed>22.711726046251965</speed>
  <fix>3d</fix>
</trkpt>
<trkpt lat="-35.3609159" lon="149.163429">
  <ele>665.92</ele>
  <time>2026-08-27T16:44:24Z</time>
  <course>271.5</course>
  <speed>22.73</speed>
  <fix>3d</fix>
</trkpt>
<trkpt lat="-35.3609466" lon="149.1631467">
  <ele>665.05</ele>
  <time>2026-08-27T16:44:24Z</time>
  <course>252.57</course>
  <speed>22.988088219771562</speed>
  <fix>3d</fix>
</trkpt>
<trkpt lat="-35.3609373" lon="149.1631825">
  <ele>665.2</ele>
  <time>2026-08-27T16:44:24Z</time>
  <course>253.51</course>
  <speed>22.74</speed>
  <fix>3d</fix>
</trkpt>
<trkpt lat="-35.3610741" lon="149.1629466">
  <ele>665.65</ele>
  <time>2026-08-27T16:44:24Z</time>
  <course>223.05</course>
  <speed>23.419942356888924</speed>
  <fix>3d</fix>
</trkpt>
<trkpt lat="-35.3610508" lon="149.1629714">
  <ele>665.53</ele>
  <time>2026-08-27T16:44:24Z</time>
  <course>221.94</course>
  <speed>23.44</speed>
  <fix>3d</fix>
</trkpt>
<trkpt lat="-35.3612517" lon="149.1628151">
  <ele>665.69</ele>
  <time>2026-08-27T16:44:24Z</time>
  <course>206.15</course>
  <speed>22.852614730047847</speed>
  <fix>3d</fix>
</trkpt>
<trkpt lat="-35.3612236" lon="149.16283">
  <ele>665.79</ele>
  <time>2026-08-27T16:44:24Z</time>
  <course>205.29</course>
  <speed>22.89</speed>
  <fix>3d</fix>
</trkpt>
<trkpt lat="-35.3614486" lon="149.1627608">
  <ele>665.2</ele>
  <time>2026-08-27T16:44:24Z</time>
  <course>187.14</course>
  <speed>22.479379439833295</speed>
  <fix>3d</fix>
</trkpt>
<trkpt lat="-35.3614192" lon="149.1627634">
  <ele>665.27</ele>
  <time>2026-08-27T16:44:24Z</time>
  <course>186.07</course>
  <speed>22.56</speed>
  <fix>3d</fix>
</trkpt>
<trkpt lat="-35.3616494" lon="149.1627773">
  <ele>664.53</ele>
  <time>2026-08-27T16:44:24Z</time>
  <course>172.64</course>
  <speed>22.248577482616724</speed>
  <fix>3d</fix>
</trkpt>
<trkpt lat="-35.36162" lon="149.1627705">
  <ele>664.63</ele>
  <time>2026-08-27T16:44:24Z</time>
  <course>171.29</course>
  <speed>22.29</speed>
  <fix>3d</fix>
</trkpt>
<trkpt lat="-35.3618399" lon="149.1628436">
  <ele>663.92</ele>
  <time>2026-08-27T16:44:24Z</time>
  <course>162.18</course>
  <speed>22.04127945469591</speed>
  <fix>3d</fix>
</trkpt>
<trkpt lat="-35.361813" lon="149.1628311">
  <ele>663.96</ele>
  <time>2026-08-27T16:44:24Z</time>
  <course>160.86</course>
  <speed>22.14</speed>
  <fix>3d</fix>
</trkpt>
<trkpt lat="-35.3620234" lon="149.1629387">
  <ele>663.45</ele>
  <time>2026-08-27T16:44:24Z</time>
  <course>156.28</course>
  <speed>22.086706409059726</speed>
  <fix>3d</fix>
</trkpt>
<trkpt lat="-35.361997" lon="149.1629231">
  <ele>663.44</ele>
  <time>2026-08-27T16:44:24Z</time>
  <course>155.52</course>
  <speed>22.13</speed>
  <fix>3d</fix>
</trkpt>
<trkpt lat="-35.3622022" lon="149.1630434">
  <ele>663.31</ele>
  <time>2026-08-27T16:44:24Z</time>
  <course>154.29</course>
  <speed>22.147697397246517</speed>
  <fix>3d</fix>
</trkpt>
<trkpt lat="-35.362177" lon="149.1630278">
  <ele>663.24</ele>
  <time>2026-08-27T16:44:24Z</time>
  <course>154.15</course>
  <speed>22.24</speed>
  <fix>3d</fix>
</trkpt>
<trkpt lat="-35.3623846" lon="149.1631485">
  <ele>663.29</ele>
  <time>2026-08-27T16:44:24Z</time>
  <course>154.97</course>
  <speed>22.363582002890325</speed>
  <fix>3d</fix>
</trkpt>
<trkpt lat="-35.3623581" lon="149.1631335">
  <ele>663.19</ele>
  <time>2026-08-27T16:44:24Z</time>
  <course>155.28</course>
  <speed>22.4</speed>
  <fix>3d</fix>
</trkpt>
<trkpt lat="-35.3625696" lon="149.1632453">
  <ele>663.43</ele>
  <time>2026-08-27T16:44:24Z</time>
  <course>157.09</course>
  <speed>22.452425258755458</speed>
  <fix>3d</fix>
</trkpt>
<trkpt lat="-35.362543" lon="149.1632323">
  <ele>663.33</ele>
  <time>2026-08-27T16:44:24Z</time>
  <course>157.74</course>
  <speed>22.51</speed>
  <fix>3d</fix>
</trkpt>
<trkpt lat="-35.3627611" lon="149.1633325">
  <ele>663.62</ele>
  <time>2026-08-27T16:44:24Z</time>
  <course>159.97</course>
  <speed>22.594921995882174</speed>
  <fix>3d</fix>
</trkpt>
<trkpt lat="-35.3627324" lon="149.1633207">
  <ele>663.51</ele>
  <time>2026-08-27T16:44:24Z</time>
  <course>160.64</course>
  <speed>22.57</speed>
  <fix>3d</fix>
</trkpt>
<trkpt lat="-35.3629537" lon="149.1634069">
  <ele>663.81</ele>
  <time>2026-08-27T16:44:24Z</time>
  <course>162.8</course>
  <speed>22.56698916559318</speed>
  <fix>3d</fix>
</trkpt>
<trkpt lat="-35.3629254" lon="149.1633972">
  <ele>663.69</ele>
  <time>2026-08-27T16:44:24Z</time>
  <course>163.47</course>
  <speed>22.59</speed>
  <fix>3d</fix>
</trkpt>
<trkpt lat="-35.3631511" lon="149.1634713">
  <ele>663.95</ele>
  <time>2026-08-27T16:44:24Z</time>
  <course>165.37</course>
  <speed>22.636450693516423</speed>
  <fix>3d</fix>
</trkpt>
<trkpt lat="-35.3631214" lon="149.1634627">
  <ele>663.83</ele>
  <time>2026-08-27T16:44:24Z</time>
  <course>165.95</course>
  <speed>22.6</speed>
  <fix>3d</fix>
</trkpt>
<trkpt lat="-35.363348" lon="149.1635256">
  <ele>664.07</ele>
  <time>2026-08-27T16:44:24Z</time>
  <course>167.57</course>
  <speed>22.577355912506672</speed>
  <fix>3d</fix>
</trkpt>
<trkpt lat="-35.3633192" lon="149.1635185">
  <ele>663.96</ele>
  <time>2026-08-27T16:44:24Z</time>
  <course>167.99</course>
  <speed>22.61</speed>
  <fix>3d</fix>
</trkpt>
<trkpt lat="-35.3635485" lon="149.1635734">
  <ele>664.17</ele>
  <time>2026-08-27T16:44:24Z</time>
  <course>169.14</course>
  <speed>22.6138033068301</speed>
  <fix>3d</fix>
</trkpt>
<trkpt lat="-35.3635184" lon="149.1635669">
  <ele>664.04</ele>
  <time>2026-08-27T16:44:24Z</time>
  <course>169.49</course>
  <speed>22.59</speed>
  <fix>3d</fix>
</trkpt>
<trkpt lat="-35.3637473" lon="149.1636159">
  <ele>664.22</ele>
  <time>2026-08-27T16:44:24Z</time>
  <course>170.14</course>
  <speed>22.53745770933359</speed>
  <fix>3d</fix>
</trkpt>
<trkpt lat="-35.3637182" lon="149.1636101">
  <ele>664.11</ele>
  <time>2026-08-27T16:44:24Z</time>
  <course>170.41</course>
  <speed>22.57</speed>
  <fix>3d</fix>
</trkpt>
<trkpt lat="-35.3639485" lon="149.1636562">
  <ele>664.24</ele>
  <time>2026-08-27T16:44:24Z</time>
  <course>170.74</course>
  <speed>22.63332498772551</speed>
  <fix>3d</fix>
</trkpt>
<trkpt lat="-35.3639185" lon="149.1636505">
  <ele>664.14</ele>
  <time>2026-08-27T16:44:24Z</time>
  <course>170.87</course>
  <speed>22.61</speed>
  <fix>3d</fix>
</trkpt>
<trkpt lat="-35.3641483" lon="149.1636951">
  <ele>664.3</ele>
  <time>2026-08-27T16:44:24Z</time>
  <course>170.93</course>
  <speed>22.582871828002745</speed>
  <fix>3d</fix>
</trkpt>
<trkpt lat="-35.3641193" lon="149.1636896">
  <ele>664.22</ele>
  <time>2026-08-27T16:44:24Z</time>
  <course>171.05</course>
  <speed>22.62</speed>
  <fix>3d</fix>
</trkpt>
<trkpt lat="-35.3643477" lon="149.1637488">
  <ele>664.15</ele>
  <time>2026-08-27T16:44:24Z</time>
  <course>161.98</course>
  <speed>23.14124024334046</speed>
  <fix>3d</fix>
</trkpt>
<trkpt lat="-35.3643191" lon="149.1637375">
  <ele>664.14</ele>
  <time>2026-08-27T16:44:24Z</time>
  <course>162.19</course>
  <speed>22.93</speed>
  <fix>3d</fix>
</trkpt>
<trkpt lat="-35.3645134" lon="149.1639102">
  <ele>665.38</ele>
  <time>2026-08-27T16:44:24Z</time>
  <course>131.91</course>
  <speed>24.014789193328347</speed>
  <fix>3d</fix>
</trkpt>
<trkpt lat="-35.3644934" lon="149.1638818">
  <ele>665.05</ele>
  <time>2026-08-27T16:44:24Z</time>
  <course>130.76</course>
  <speed>24.06</speed>
  <fix>3d</fix>
</trkpt>
<trkpt lat="-35.3646254" lon="149.1641337">
  <ele>666.08</ele>
  <time>2026-08-27T16:44:24Z</time>
  <course>118.45</course>
  <speed>23.38986532667514</speed>
  <fix>3d</fix>
</trkpt>
<trkpt lat="-35.3646119" lon="149.1640993">
  <ele>666.11</ele>
  <time>2026-08-27T16:44:24Z</time>
  <course>117.16</course>
  <speed>23.4</speed>
  <fix>3d</fix>
</trkpt>
<trkpt lat="-35.3646778" lon="149.1643787">
  <ele>665.84</ele>
  <time>2026-08-27T16:44:24Z</time>
  <course>98.8</course>
  <speed>22.938234456906226</speed>
  <fix>3d</fix>
</trkpt>
<trkpt lat="-35.3646743" lon="149.1643414">
  <ele>665.87</ele>
  <time>2026-08-27T16:44:24Z</time>
  <course>97.7</course>
  <speed>22.95</speed>
  <fix>3d</fix>
</trkpt>
<trkpt lat="-35.364668" lon="149.1646273">
  <ele>665.32</ele>
  <time>2026-08-27T16:44:25Z</time>
  <course>80.55</course>
  <speed>22.90587697513457</speed>
  <fix>3d</fix>
</trkpt>
<trkpt lat="-35.3646736" lon="149.1645911">
  <ele>665.49</ele>
  <time>2026-08-27T16:44:25Z</time>
  <course>80.89</course>
  <speed>22.74</speed>
  <fix>3d</fix>
</trkpt>
<trkpt lat="-35.364564" lon="149.1648466">
  <ele>665.7</ele>
  <time>2026-08-27T16:44:25Z</time>
  <course>48.85</course>
  <speed>23.454860903446004</speed>
  <fix>3d</fix>
</trkpt>
<trkpt lat="-35.3645845" lon="149.1648188">
  <ele>665.57</ele>
  <time>2026-08-27T16:44:25Z</time>
  <course>48.35</course>
  <speed>23.49</speed>
  <fix>3d</fix>
</trkpt>
<trkpt lat="-35.3643968" lon="149.1649978">
  <ele>666.01</ele>
  <time>2026-08-27T16:44:25Z</time>
  <course>32.03</course>
  <speed>22.86000874890471</speed>
  <fix>3d</fix>
</trkpt>
<trkpt lat="-35.364423" lon="149.16498">
  <ele>666.07</ele>
  <time>2026-08-27T16:44:25Z</time>
  <course>30.84</course>
  <speed>22.93</speed>
  <fix>3d</fix>
</trkpt>
<trkpt lat="-35.3642036" lon="149.1650751">
  <ele>665.39</ele>
  <time>2026-08-27T16:44:25Z</time>
  <course>11.45</course>
  <speed>22.563022847127556</speed>
  <fix>3d</fix>
</trkpt>
<trkpt lat="-35.3642334" lon="149.1650694">
  <ele>665.48</ele>
  <time>2026-08-27T16:44:25Z</time>
  <course>10.69</course>
  <speed>22.58</speed>
  <fix>3d</fix>
</trkpt>
<trkpt lat="-35.3640034" lon="149.1650738">
  <ele>664.79</ele>
  <time>2026-08-27T16:44:25Z</time>
  <course>356.07</course>
  <speed>22.22005625555435</speed>
  <fix>3d</fix>
</trkpt>
<trkpt lat="-35.3640326" lon="149.1650784">
  <ele>664.89</ele>
  <time>2026-08-27T16:44:25Z</time>
  <course>354.59</course>
  <speed>22.27</speed>
  <fix>3d</fix>
</trkpt>
<trkpt lat="-35.3638102" lon="149.1650169">
  <ele>664.09</ele>
  <time>2026-08-27T16:44:25Z</time>
  <course>344.03</course>
  <speed>22.04487468778174</speed>
  <fix>3d</fix>
</trkpt>
<trkpt lat="-35.3638379" lon="149.1650286">
  <ele>664.14</ele>
  <time>2026-08-27T16:44:25Z</time>
  <course>342.59</course>
  <speed>22.1</speed>
  <fix>3d</fix>
</trkpt>
<trkpt lat="-35.3636274" lon="149.1649265">
  <ele>663.57</ele>
  <time>2026-08-27T16:44:25Z</time>
  <course>336.89</course>
  <speed>21.9796724270404</speed>
  <fix>3d</fix>
</trkpt>
<trkpt lat="-35.3636532" lon="149.1649413">
  <ele>663.55</ele>
  <time>2026-08-27T16:44:25Z</time>
  <course>336.06</course>
  <speed>22.05</speed>
  <fix>3d</fix>
</trkpt>
<trkpt lat="-35.3634474" lon="149.1648207">
  <ele>663.27</ele>
  <time>2026-08-27T16:44:25Z</time>
  <course>334.18</course>
  <speed>22.159986462089726</speed>
  <fix>3d</fix>
</trkpt>
<trkpt lat="-35.3634735" lon="149.1648369">
  <ele>663.2</ele>
  <time>2026-08-27T16:44:25Z</time>
  <course>333.91</course>
  <speed>22.18</speed>
  <fix>3d</fix>
</trkpt>
<trkpt lat="-35.3632674" lon="149.1647151">
  <ele>663.24</ele>
  <time>2026-08-27T16:44:25Z</time>
  <course>334.55</course>
  <speed>22.294613699277235</speed>
  <fix>3d</fix>
</trkpt>
<trkpt lat="-35.3632935" lon="149.1647303">
  <ele>663.13</ele>
  <time>2026-08-27T16:44:25Z</time>
  <course>334.88</course>
  <speed>22.34</speed>
  <fix>3d</fix>
</trkpt>
<trkpt lat="-35.3630818" lon="149.1646157">
  <ele>663.36</ele>
  <time>2026-08-27T16:44:25Z</time>
  <course>336.66</course>
  <speed>22.48658488966255</speed>
  <fix>3d</fix>
</trkpt>
<trkpt lat="-35.3631094" lon="149.1646298">
  <ele>663.23</ele>
  <time>2026-08-27T16:44:25Z</time>
  <course>337.25</course>
  <speed>22.48</speed>
  <fix>3d</fix>
</trkpt>
<trkpt lat="-35.3628934" lon="149.1645286">
  <ele>663.55</ele>
  <time>2026-08-27T16:44:25Z</time>
  <course>339.68</course>
  <speed>22.507387676049834</speed>
  <fix>3d</fix>
</trkpt>
<trkpt lat="-35.3629209" lon="149.1645403">
  <ele>663.42</ele>
  <time>2026-08-27T16:44:25Z</time>
  <course>340.39</course>
  <speed>22.55</speed>
  <fix>3d</fix>
</trkpt>
<trkpt lat="-35.3626991" lon="149.1644533">
  <ele>663.71</ele>
  <time>2026-08-27T16:44:25Z</time>
  <course>342.82</course>
  <speed>22.609548867679777</speed>
  <fix>3d</fix>
</trkpt>
<trkpt lat="-35.3627278" lon="149.1644632">
  <ele>663.58</ele>
  <time>2026-08-27T16:44:25Z</time>
  <course>343.52</course>
  <speed>22.6</speed>
  <fix>3d</fix>
</trkpt>
<trkpt lat="-35.3625035" lon="149.1643902">
  <ele>663.88</ele>
  <time>2026-08-27T16:44:25Z</time>
  <course>345.61</course>
  <speed>22.55984485762258</speed>
  <fix>3d</fix>
</trkpt>
<trkpt lat="-35.3625318" lon="149.1643983">
  <ele>663.77</ele>
  <time>2026-08-27T16:44:25Z</time>
  <course>346.18</course>
  <speed>22.59</speed>
  <fix>3d</fix>
</trkpt>
<trkpt lat="-35.3623038" lon="149.1643366">
  <ele>663.99</ele>
  <time>2026-08-27T16:44:25Z</time>
  <course>347.83</course>
  <speed>22.639646640351966</speed>
  <fix>3d</fix>
</trkpt>
<trkpt lat="-35.3623338" lon="149.1643437">
  <ele>663.9</ele>
  <time>2026-08-27T16:44:25Z</time>
  <course>348.35</course>
  <speed>22.6</speed>
  <fix>3d</fix>
</trkpt>
<trkpt lat="-35.3621053" lon="149.1642911">
  <ele>664.1</ele>
  <time>2026-08-27T16:44:25Z</time>
  <course>349.52</course>
  <speed>22.57077978271907</speed>
  <fix>3d</fix>
</trkpt>
<trkpt lat="-35.3621344" lon="149.1642971">
  <ele>664.02</ele>
  <time>2026-08-27T16:44:25Z</time>
  <course>349.95</course>
  <speed>22.6</speed>
  <fix>3d</fix>
</trkpt>
<trkpt lat="-35.3619038" lon="149.1642504">
  <ele>664.15</ele>
  <time>2026-08-27T16:44:25Z</time>
  <course>350.73</course>
  <speed>22.640605115588233</speed>
  <fix>3d</fix>
</trkpt>
<trkpt lat="-35.361934" lon="149.1642561">
  <ele>664.09</ele>
  <time>2026-08-27T16:44:25Z</time>
  <course>350.99</course>
  <speed>22.61</speed>
  <fix>3d</fix>
</trkpt>
<trkpt lat="-35.3617043" lon="149.1642133">
  <ele>664.24</ele>
  <time>2026-08-27T16:44:25Z</time>
  <course>351.45</course>
  <speed>22.579503980380082</speed>
  <fix>3d</fix>
</trkpt>
<trkpt lat="-35.3617332" lon="149.1642185">
  <ele>664.19</ele>
  <time>2026-08-27T16:44:25Z</time>
  <course>351.58</course>
  <speed>22.62</speed>
  <fix>3d</fix>
</trkpt>
<trkpt lat="-35.3615018" lon="149.1641772">
  <ele>664.28</ele>
  <time>2026-08-27T16:44:25Z</time>
  <course>351.74</course>
  <speed>22.662799915279667</speed>
  <fix>3d</fix>
</trkpt>
<trkpt lat="-35.3615319" lon="149.1641826">
  <ele>664.22</ele>
  <time>2026-08-27T16:44:25Z</time>
  <course>351.79</course>
  <speed>22.64</speed>
  <fix>3d</fix>
</trkpt>
<trkpt lat="-35.3613019" lon="149.1641383">
  <ele>664.31</ele>
  <time>2026-08-27T16:44:25Z</time>
  <course>348.04</course>
  <speed>22.659093097474134</speed>
  <fix>3d</fix>
</trkpt>
<trkpt lat="-35.3613308" lon="149.1641453">
  <ele>664.28</ele>
  <time>2026-08-27T16:44:25Z</time>
  <course>348.97</course>
  <speed>22.66</speed>
  <fix>3d</fix>
</trkpt>
<trkpt lat="-35.3611173" lon="149.1640161">
  <ele>664.69</ele>
  <time>2026-08-27T16:44:25Z</time>
  <course>318.36</course>
  <speed>24.183155294543347</speed>
  <fix>3d</fix>
</trkpt>
<trkpt lat="-35.3611418" lon="149.1640418">
  <ele>664.46</ele>
  <time>2026-08-27T16:44:25Z</time>
  <course>319.34</course>
  <speed>24.07</speed>
  <fix>3d</fix>
</trkpt>
<trkpt lat="-35.360993" lon="149.1638027">
  <ele>666.26</ele>
  <time>2026-08-27T16:44:25Z</time>
  <course>303.7</course>
  <speed>23.590364558437837</speed>
  <fix>3d</fix>
</trkpt>
<trkpt lat="-35.3610087" lon="149.1638355">
  <ele>666.23</ele>
  <time>2026-08-27T16:44:25Z</time>
  <course>301.6</course>
  <speed>23.68</speed>
  <fix>3d</fix>
</trkpt>
<trkpt lat="-35.3609196" lon="149.1635636">
  <ele>665.98</ele>
  <time>2026-08-27T16:44:25Z</time>
  <course>284.45</course>
  <speed>23.090753560678785</speed>
  <fix>3d</fix>
</trkpt>
<trkpt lat="-35.3609259" lon="149.1636007">
  <ele>666.03</ele>
  <time>2026-08-27T16:44:25Z</time>
  <course>283.58</course>
  <speed>23.05</speed>
  <fix>3d</fix>
</trkpt>
<trkpt lat="-35.360912" lon="149.1633147">
  <ele>665.73</ele>
  <time>2026-08-27T16:44:25Z</time>
  <course>268.13</course>
  <speed>22.521674005277674</speed>
  <fix>3d</fix>
</trkpt>
<trkpt lat="-35.3609095" lon="149.1633509">
  <ele>665.8</ele>
  <time>2026-08-27T16:44:25Z</time>
  <course>266.87</course>
  <speed>22.57</speed>
  <fix>3d</fix>
</trkpt>
<trkpt lat="-35.3609686" lon="149.1630758">
  <ele>664.93</ele>
  <time>2026-08-27T16:44:25Z</time>
  <course>241.59</course>
  <speed>23.381952442001076</speed>
  <fix>3d</fix>
</trkpt>
<trkpt lat="-35.3609541" lon="149.1631093">
  <ele>665.0</ele>
  <time>2026-08-27T16:44:25Z</time>
  <course>243.26</course>
  <speed>23.16</speed>
  <fix>3d</fix>
</trkpt>
<trkpt lat="-35.3611192" lon="149.1628989">
  <ele>665.88</ele>
  <time>2026-08-27T16:44:25Z</time>
  <course>218.11</course>
  <speed>23.228166092052984</speed>
  <fix>3d</fix>
</trkpt>
<trkpt lat="-35.3610942" lon="149.1629206">
  <ele>665.8</ele>
  <time>2026-08-27T16:44:25Z</time>
  <course>216.29</course>
  <speed>23.31</speed>
  <fix>3d</fix>
</trkpt>
<trkpt lat="-35.361304" lon="149.162789">
  <ele>665.49</ele>
  <time>2026-08-27T16:44:25Z</time>
  <course>200.11</course>
  <speed>22.703667104677166</speed>
  <fix>3d</fix>
</trkpt>
<trkpt lat="-35.3612751" lon="149.1628003">
  <ele>665.6</ele>
  <time>2026-08-27T16:44:25Z</time>
  <course>199.49</course>
  <speed>22.72</speed>
  <fix>3d</fix>
</trkpt>
<trkpt lat="-35.3615039" lon="149.1627605">
  <ele>665.07</ele>
  <time>2026-08-27T16:44:25Z</time>
  <course>181.78</course>
  <speed>22.352923746123235</speed>
  <fix>3d</fix>
</trkpt>
<trkpt lat="-35.3614744" lon="149.1627596">
  <ele>665.14</ele>
  <time>2026-08-27T16:44:25Z</time>
  <course>180.39</course>
  <speed>22.43</speed>
  <fix>3d</fix>
</trkpt>
<trkpt lat="-35.3617006" lon="149.1627948">
  <ele>664.41</ele>
  <time>2026-08-27T16:44:25Z</time>
  <course>168.99</course>
  <speed>22.03926042316302</speed>
  <fix>3d</fix>
</trkpt>
<trkpt lat="-35.3616727" lon="149.1627861">
  <ele>664.49</ele>
  <time>2026-08-27T16:44:25Z</time>
  <course>167.65</course>
  <speed>22.11</speed>
  <fix>3d</fix>
</trkpt>
<trkpt lat="-35.3618885" lon="149.1628719">
  <ele>663.84</ele>
  <time>2026-08-27T16:44:25Z</time>
  <course>159.95</course>
  <speed>21.948086476957393</speed>
  <fix>3d</fix>
</trkpt>
<trkpt lat="-35.3618618" lon="149.1628581">
  <ele>663.86</ele>
  <time>2026-08-27T16:44:25Z</time>
  <course>158.74</course>
  <speed>22.02</speed>
  <fix>3d</fix>
</trkpt>
<trkpt lat="-35.3620691" lon="149.1629706">
  <ele>663.45</ele>
  <time>2026-08-27T16:44:25Z</time>
  <course>155.32</course>
  <speed>22.042279827640336</speed>
  <fix>3d</fix>
</trkpt>
<trkpt lat="-35.3620432" lon="149.1629549">
  <ele>663.43</ele>
  <time>2026-08-27T16:44:25Z</time>
  <course>154.83</course>
  <speed>22.09</speed>
  <fix>3d</fix>
</trkpt>
<trkpt lat="-35.3622491" lon="149.1630764">
  <ele>663.33</ele>
  <time>2026-08-27T16:44:25Z</time>
  <course>154.31</course>
  <speed>22.217247804352365</speed>
  <fix>3d</fix>
</trkpt>
<trkpt lat="-35.362223" lon="149.1630607">
  <ele>663.26</ele>
  <time>2026-08-27T16:44:25Z</time>
  <course>154.39</course>
  <speed>22.26</speed>
  <fix>3d</fix>
</trkpt>
<trkpt lat="-35.3624312" lon="149.1631784">
  <ele>663.41</ele>
  <time>2026-08-27T16:44:25Z</time>
  <course>155.63</course>
  <speed>22.34740477102431</speed>
  <fix>3d</fix>
</trkpt>
<trkpt lat="-35.3624049" lon="149.1631642">
  <ele>663.29</ele>
  <time>2026-08-27T16:44:25Z</time>
  <course>156.07</course>
  <speed>22.4</speed>
  <fix>3d</fix>
</trkpt>
<trkpt lat="-35.3626187" lon="149.1632721">
  <ele>663.53</ele>
  <time>2026-08-27T16:44:25Z</time>
  <course>158.13</course>
  <speed>22.51411113057764</speed>
  <fix>3d</fix>
</trkpt>
<trkpt lat="-35.3625913" lon="149.1632596">
  <ele>663.39</ele>
  <time>2026-08-27T16:44:25Z</time>
  <course>158.75</course>
  <speed>22.53</speed>
  <fix>3d</fix>
</trkpt>
<trkpt lat="-35.3628096" lon="149.1633543">
  <ele>663.69</ele>
  <time>2026-08-27T16:44:25Z</time>
  <course>161.03</course>
  <speed>22.54540529686703</speed>
  <fix>3d</fix>
</trkpt>
<trkpt lat="-35.3627819" lon="149.1633436">
  <ele>663.56</ele>
  <time>2026-08-27T16:44:25Z</time>
  <course>161.68</course>
  <speed>22.57</speed>
  <fix>3d</fix>
</trkpt>
<trkpt lat="-35.3630053" lon="149.1634254">
  <ele>663.87</ele>
  <time>2026-08-27T16:44:25Z</time>
  <course>163.76</course>
  <speed>22.62029398571115</speed>
  <fix>3d</fix>
</trkpt>
<trkpt lat="-35.3629761" lon="149.1634159">
  <ele>663.72</ele>
  <time>2026-08-27T16:44:25Z</time>
  <course>164.42</course>
  <speed>22.59</speed>
  <fix>3d</fix>
</trkpt>
<trkpt lat="-35.3632013" lon="149.1634855">
  <ele>664.01</ele>
  <time>2026-08-27T16:44:25Z</time>
  <course>166.2</course>
  <speed>22.560179520562333</speed>
  <fix>3d</fix>
</trkpt>
<trkpt lat="-35.3631726" lon="149.1634778">
  <ele>663.87</ele>
  <time>2026-08-27T16:44:25Z</time>
  <course>166.7</course>
  <speed>22.59</speed>
  <fix>3d</fix>
</trkpt>
<trkpt lat="-35.3634005" lon="149.163538">
  <ele>664.1</ele>
  <time>2026-08-27T16:44:26Z</time>
  <course>168.0</course>
  <speed>22.61027421328631</speed>
  <fix>3d</fix>
</trkpt>
<trkpt lat="-35.363371" lon="149.163531">
  <ele>663.95</ele>
  <time>2026-08-27T16:44:26Z</time>
  <course>168.52</course>
  <speed>22.59</speed>
  <fix>3d</fix>
</trkpt>
<trkpt lat="-35.3635991" lon="149.1635838">
  <ele>664.14</ele>
  <time>2026-08-27T16:44:26Z</time>
  <course>169.43</course>
  <speed>22.586305585464835</speed>
  <fix>3d</fix>
</trkpt>
<trkpt lat="-35.3635704" lon="149.1635777">
  <ele>664.01</ele>
  <time>2026-08-27T16:44:26Z</time>
  <course>169.77</course>
  <speed>22.62</speed>
  <fix>3d</fix>
</trkpt>
<trkpt lat="-35.3638009" lon="149.163626">
  <ele>664.21</ele>
  <time>2026-08-27T16:44:26Z</time>
  <course>170.39</course>
  <speed>22.647695246978223</speed>
  <fix>3d</fix>
</trkpt>
<trkpt lat="-35.3637708" lon="149.1636201">
  <ele>664.1</ele>
  <time>2026-08-27T16:44:26Z</time>
  <course>170.58</course>
  <speed>22.62</speed>
  <fix>3d</fix>
</trkpt>
<trkpt lat="-35.3640006" lon="149.1636653">
  <ele>664.25</ele>
  <time>2026-08-27T16:44:26Z</time>
  <course>170.89</course>
  <speed>22.594302379139744</speed>
  <fix>3d</fix>
</trkpt>
<trkpt lat="-35.3639715" lon="149.1636598">
  <ele>664.15</ele>
  <time>2026-08-27T16:44:26Z</time>
  <course>171.03</course>
  <speed>22.63</speed>
  <fix>3d</fix>
</trkpt>
<trkpt lat="-35.3642028" lon="149.1637042">
  <ele>664.29</ele>
  <time>2026-08-27T16:44:26Z</time>
  <course>169.95</course>
  <speed>22.679561283234733</speed>
  <fix>3d</fix>
</trkpt>
<trkpt lat="-35.3641725" lon="149.1636984">
  <ele>664.2</ele>
  <time>2026-08-27T16:44:26Z</time>
  <course>171.09</course>
  <speed>22.66</speed>
  <fix>3d</fix>
</trkpt>
<trkpt lat="-35.3643972" lon="149.1637789">
  <ele>664.12</ele>
  <time>2026-08-27T16:44:26Z</time>
  <course>152.0</course>
  <speed>23.786962815794706</speed>
  <fix>3d</fix>
</trkpt>
<trkpt lat="-35.3643701" lon="149.1637625">
  <ele>664.09</ele>
  <time>2026-08-27T16:44:26Z</time>
  <course>153.44</course>
  <speed>23.52</speed>
  <fix>3d</fix>
</trkpt>
<trkpt lat="-35.3645455" lon="149.1639716">
  <ele>665.89</ele>
  <time>2026-08-27T16:44:26Z</time>
  <course>128.47</course>
  <speed>23.963280242904975</speed>
  <fix>3d</fix>
</trkpt>
<trkpt lat="-35.3645272" lon="149.1639394">
  <ele>665.65</ele>
  <time>2026-08-27T16:44:26Z</time>
  <course>126.04</course>
  <speed>23.97</speed>
  <fix>3d</fix>
</trkpt>
<trkpt lat="-35.3646427" lon="149.1641994">
  <ele>666.02</ele>
  <time>2026-08-27T16:44:26Z</time>
  <course>112.8</course>
  <speed>23.164898014021126</speed>
  <fix>3d</fix>
</trkpt>
<trkpt lat="-35.3646322" lon="149.1641642">
  <ele>666.04</ele>
  <time>2026-08-27T16:44:26Z</time>
  <course>111.95</course>
  <speed>23.21</speed>
  <fix>3d</fix>
</trkpt>
<trkpt lat="-35.3646773" lon="149.1644487">
  <ele>665.79</ele>
  <time>2026-08-27T16:44:26Z</time>
  <course>94.83</course>
  <speed>22.794442305088317</speed>
  <fix>3d</fix>
</trkpt>
<trkpt lat="-35.3646764" lon="149.1644106">
  <ele>665.79</ele>
  <time>2026-08-27T16:44:26Z</time>
  <course>93.51</course>
  <speed>22.78</speed>
  <fix>3d</fix>
</trkpt>
<trkpt lat="-35.3646472" lon="149.1646943">
  <ele>665.15</ele>
  <time>2026-08-27T16:44:26Z</time>
  <course>70.53</course>
  <speed>23.339258771434878</speed>
  <fix>3d</fix>
</trkpt>
<trkpt lat="-35.3646573" lon="149.1646589">
  <ele>665.17</ele>
  <time>2026-08-27T16:44:26Z</time>
  <course>71.96</course>
  <speed>23.15</speed>
  <fix>3d</fix>
</trkpt>
<trkpt lat="-35.3645167" lon="149.1648951">
  <ele>665.96</ele>
  <time>2026-08-27T16:44:26Z</time>
  <course>44.53</course>
  <speed>23.415994533651563</speed>
  <fix>3d</fix>
</trkpt>
<trkpt lat="-35.36454" lon="149.16487">
  <ele>665.81</ele>
  <time>2026-08-27T16:44:26Z</time>
  <course>43.0</course>
  <speed>23.45</speed>
  <fix>3d</fix>
</trkpt>
<trkpt lat="-35.3643423" lon="149.1650291">
  <ele>665.79</ele>
  <time>2026-08-27T16:44:26Z</time>
  <course>26.13</course>
  <speed>22.791687081039</speed>
  <fix>3d</fix>
</trkpt>
<trkpt lat="-35.3643697" lon="149.1650146">
  <ele>665.81</ele>
  <time>2026-08-27T16:44:26Z</time>
  <course>25.54</course>
  <speed>22.86</speed>
  <fix>3d</fix>
</trkpt>
<trkpt lat="-35.3641441" lon="149.1650815">
  <ele>665.3</ele>
  <time>2026-08-27T16:44:26Z</time>
  <course>6.7</course>
  <speed>22.456469001158663</speed>
  <fix>3d</fix>
</trkpt>
<trkpt lat="-35.364174" lon="149.1650795">
  <ele>665.31</ele>
  <time>2026-08-27T16:44:26Z</time>
  <course>5.4</course>
  <speed>22.51</speed>
  <fix>3d</fix>
</trkpt>
<trkpt lat="-35.3639454" lon="149.1650637">
  <ele>664.61</ele>
  <time>2026-08-27T16:44:26Z</time>
  <course>352.02</course>
  <speed>22.096409210548213</speed>
  <fix>3d</fix>
</trkpt>
<trkpt lat="-35.3639741" lon="149.1650706">
  <ele>664.64</ele>
  <time>2026-08-27T16:44:26Z</time>
  <course>350.8</course>
  <speed>22.17</speed>
  <fix>3d</fix>
</trkpt>
<trkpt lat="-35.3637554" lon="149.1649954">
  <ele>663.93</ele>
  <time>2026-08-27T16:44:26Z</time>
  <course>341.72</course>
  <speed>21.974705913845582</speed>
  <fix>3d</fix>
</trkpt>
<trkpt lat="-35.3637826" lon="149.1650084">
  <ele>663.94</ele>
  <time>2026-08-27T16:44:26Z</time>
  <course>340.45</course>
  <speed>22.03</speed>
  <fix>3d</fix>
</trkpt>
<trkpt lat="-35.3635741" lon="149.1648993">
  <ele>663.46</ele>
  <time>2026-08-27T16:44:26Z</time>
  <course>335.64</course>
  <speed>21.99325805786855</speed>
  <fix>3d</fix>
</trkpt>
<trkpt lat="-35.3635999" lon="149.1649148">
  <ele>663.41</ele>
  <time>2026-08-27T16:44:26Z</time>
  <course>335.03</course>
  <speed>22.06</speed>
  <fix>3d</fix>
</trkpt>
<trkpt lat="-35.3633955" lon="149.1647929">
  <ele>663.23</ele>
  <time>2026-08-27T16:44:26Z</time>
  <course>333.9</course>
  <speed>22.151363389191193</speed>
  <fix>3d</fix>
</trkpt>
<trkpt lat="-35.363421" lon="149.1648087">
  <ele>663.14</ele>
  <time>2026-08-27T16:44:26Z</time>
  <course>333.91</course>
  <speed>22.2</speed>
  <fix>3d</fix>
</trkpt>
<trkpt lat="-35.3632135" lon="149.1646878">
  <ele>663.27</ele>
  <time>2026-08-27T16:44:26Z</time>
  <course>334.85</course>
  <speed>22.351216969104836</speed>
  <fix>3d</fix>
</trkpt>
<trkpt lat="-35.3632402" lon="149.1647029">
  <ele>663.14</ele>
  <time>2026-08-27T16:44:26Z</time>
  <course>335.34</course>
  <speed>22.37</speed>
  <fix>3d</fix>
</trkpt>
<trkpt lat="-35.3630278" lon="149.1645915">
  <ele>663.42</ele>
  <time>2026-08-27T16:44:26Z</time>
  <course>337.21</course>
  <speed>22.500944424623604</speed>
  <fix>3d</fix>
</trkpt>
<trkpt lat="-35.3630552" lon="149.1646048">
  <ele>663.28</ele>
  <time>2026-08-27T16:44:26Z</time>
  <course>337.98</course>
  <speed>22.49</speed>
  <fix>3d</fix>
</trkpt>
<trkpt lat="-35.3628368" lon="149.1645065">
  <ele>663.58</ele>
  <time>2026-08-27T16:44:26Z</time>
  <course>340.39</course>
  <speed>22.58511456690003</speed>
  <fix>3d</fix>
</trkpt>
<trkpt lat="-35.3628654" lon="149.1645181">
  <ele>663.45</ele>
  <time>2026-08-27T16:44:26Z</time>
  <course>341.22</course>
  <speed>22.57</speed>
  <fix>3d</fix>
</trkpt>
<trkpt lat="-35.3626432" lon="149.164435">
  <ele>663.76</ele>
  <time>2026-08-27T16:44:26Z</time>
  <course>343.56</course>
  <speed>22.5947693061912</speed>
  <fix>3d</fix>
</trkpt>
<trkpt lat="-35.3626716" lon="149.1644443">
  <ele>663.67</ele>
  <time>2026-08-27T16:44:26Z</time>
  <course>344.24</course>
  <speed>22.6</speed>
  <fix>3d</fix>
</trkpt>
<trkpt lat="-35.3624457" lon="149.1643746">
  <ele>663.94</ele>
  <time>2026-08-27T16:44:26Z</time>
  <course>346.18</course>
  <speed>22.593417182887585</speed>
  <fix>3d</fix>
</trkpt>
<trkpt lat="-35.3624748" lon="149.1643825">
  <ele>663.85</ele>
  <time>2026-08-27T16:44:26Z</time>
  <course>346.87</course>
  <speed>22.59</speed>
  <fix>3d</fix>
</trkpt>
<trkpt lat="-35.3622475" lon="149.1643238">
  <ele>664.04</ele>
  <time>2026-08-27T16:44:26Z</time>
  <course>348.39</course>
  <speed>22.59145192323858</speed>
  <fix>3d</fix>
</trkpt>
<trkpt lat="-35.3622764" lon="149.1643303">
  <ele>663.97</ele>
  <time>2026-08-27T16:44:26Z</time>
  <course>348.87</course>
  <speed>22.6</speed>
  <fix>3d</fix>
</trkpt>
<trkpt lat="-35.3620466" lon="149.1642797">
  <ele>664.16</ele>
  <time>2026-08-27T16:44:26Z</time>
  <course>349.96</course>
  <speed>22.614731924124147</speed>
  <fix>3d</fix>
</trkpt>
<trkpt lat="-35.3620765" lon="149.1642857">
  <ele>664.08</ele>
  <time>2026-08-27T16:44:26Z</time>
  <course>350.36</course>
  <speed>22.6</speed>
  <fix>3d</fix>
</trkpt>
<trkpt lat="-35.3618469" lon="149.1642406">
  <ele>664.19</ele>
  <time>2026-08-27T16:44:26Z</time>
  <course>350.95</course>
  <speed>22.57898359094138</speed>
  <fix>3d</fix>
</trkpt>
<trkpt lat="-35.3618762" lon="149.164246">
  <ele>664.13</ele>
  <time>2026-08-27T16:44:26Z</time>
  <course>351.21</course>
  <speed>22.6</speed>
  <fix>3d</fix>
</trkpt>
<trkpt lat="-35.3616452" lon="149.1642039">
  <ele>664.26</ele>
  <time>2026-08-27T16:44:26Z</time>
  <course>351.53</course>
  <speed>22.62608450439448</speed>
  <fix>3d</fix>
</trkpt>
<trkpt lat="-35.3616752" lon="149.1642092">
  <ele>664.21</ele>
  <time>2026-08-27T16:44:26Z</time>
  <course>351.69</course>
  <speed>22.62</speed>
  <fix>3d</fix>
</trkpt>
<trkpt lat="-35.3614451" lon="149.1641686">
  <ele>664.3</ele>
  <time>2026-08-27T16:44:26Z</time>
  <course>351.76</course>
  <speed>22.57792063056295</speed>
  <fix>3d</fix>
</trkpt>
<trkpt lat="-35.361474" lon="149.1641738">
  <ele>664.26</ele>
  <time>2026-08-27T16:44:26Z</time>
  <course>351.86</course>
  <speed>22.63</speed>
  <fix>3d</fix>
</trkpt>
<trkpt lat="-35.3612441" lon="149.1641207">
  <ele>663.61</ele>
  <time>2026-08-27T16:44:26Z</time>
  <course>343.51</course>
  <speed>23.11273674838183</speed>
  <fix>3d</fix>
</trkpt>
<trkpt lat="-35.3612736" lon="149.1641308">
  <ele>663.8</ele>
  <time>2026-08-27T16:44:26Z</time>
  <course>344.0</course>
  <speed>22.87</speed>
  <fix>3d</fix>
</trkpt>
<trkpt lat="-35.3610862" lon="149.1639484">
  <ele>664.54</ele>
  <time>2026-08-27T16:44:26Z</time>
  <course>303.62</course>
  <speed>24.42995088001611</speed>
  <fix>3d</fix>
</trkpt>
<trkpt lat="-35.3611037" lon="149.1639798">
  <ele>664.22</ele>
  <time>2026-08-27T16:44:26Z</time>
  <course>303.89</course>
  <speed>24.45</speed>
  <fix>3d</fix>
</trkpt>
<trkpt lat="-35.3610097" lon="149.1636945">
  <ele>666.19</ele>
  <time>2026-08-27T16:44:26Z</time>
  <course>284.75</course>
  <speed>24.21678137160263</speed>
  <fix>3d</fix>
</trkpt>
<trkpt lat="-35.3610165" lon="149.1637338">
  <ele>666.15</ele>
  <time>2026-08-27T16:44:26Z</time>
  <course>283.91</course>
  <speed>24.18</speed>
  <fix>3d</fix>
</trkpt>
<trkpt lat="-35.3610141" lon="149.1634366">
  <ele>666.46</ele>
  <time>2026-08-27T16:44:26Z</time>
  <course>260.43</course>
  <speed>23.452048950997863</speed>
  <fix>3d</fix>
</trkpt>
<trkpt lat="-35.3610079" lon="149.1634738">
  <ele>666.5</ele>
  <time>2026-08-27T16:44:26Z</time>
  <course>260.15</course>
  <speed>23.45</speed>
  <fix>3d</fix>
</trkpt>
<trkpt lat="-35.3611034" lon="149.163207">
  <ele>665.9</ele>
  <time>2026-08-27T16:44:26Z</time>
  <course>236.98</course>
  <speed>23.010019556706162</speed>
  <fix>3d</fix>
</trkpt>
<trkpt lat="-35.3610851" lon="149.1632386">
  <ele>666.06</ele>
  <time>2026-08-27T16:44:26Z</time>
  <course>236.4</course>
  <speed>22.95</speed>
  <fix>3d</fix>
</trkpt>
<trkpt lat="-35.3612541" lon="149.1630423">
  <ele>664.54</ele>
  <time>2026-08-27T16:44:26Z</time>
  <course>214.65</course>
  <speed>22.57444794452347</speed>
  <fix>3d</fix>
</trkpt>
<trkpt lat="-35.3612289" lon="149.1630621">
  <ele>664.76</ele>
  <time>2026-08-27T16:44:26Z</time>
  <course>213.85</course>
  <speed>22.63</speed>
  <fix>3d</fix>
</trkpt>
<trkpt lat="-35.3614406" lon="149.1629517">
  <ele>662.48</ele>
  <time>2026-08-27T16:44:26Z</time>
  <course>196.88</course>
  <speed>22.138981458052672</speed>
  <fix>3d</fix>
</trkpt>
<trkpt lat="-35.3614115" lon="149.1629606">
  <ele>662.79</ele>
  <time>2026-08-27T16:44:26Z</time>
  <course>195.59</course>
  <speed>22.18</speed>
  <fix>3d</fix>
</trkpt>
<trkpt lat="-35.3616353" lon="149.162925">
  <ele>660.17</ele>
  <time>2026-08-27T16:44:26Z</time>
  <course>183.36</course>
  <speed>21.820449124617024</speed>
  <fix>3d</fix>
</trkpt>
<trkpt lat="-35.3616068" lon="149.1629252">
  <ele>660.47</ele>
  <time>2026-08-27T16:44:26Z</time>
  <course>182.11</course>
  <speed>21.91</speed>
  <fix>3d</fix>
</trkpt>
<trkpt lat="-35.3618319" lon="149.1629409">
  <ele>657.96</ele>
  <time>2026-08-27T16:44:26Z</time>
  <course>174.46</course>
  <speed>21.952393946902465</speed>
  <fix>3d</fix>
</trkpt>
<trkpt lat="-35.3618034" lon="149.1629359">
  <ele>658.21</ele>
  <time>2026-08-27T16:44:26Z</time>
  <course>173.48</course>
  <speed>21.99</speed>
  <fix>3d</fix>
</trkpt>
<trkpt lat="-35.3620274" lon="149.1629793">
  <ele>656.25</ele>
  <time>2026-08-27T16:44:26Z</time>
  <course>170.69</course>
  <speed>22.100156108045937</speed>
  <fix>3d</fix>
</trkpt>
<trkpt lat="-35.3619996" lon="149.1629729">
  <ele>656.43</ele>
  <time>2026-08-27T16:44:26Z</time>
  <course>170.46</course>
  <speed>22.18</speed>
  <fix>3d</fix>
</trkpt>
<trkpt lat="-35.3622267" lon="149.1630113">
  <ele>654.78</ele>
  <time>2026-08-27T16:44:26Z</time>
  <course>173.33</course>
  <speed>22.418496827396794</speed>
  <fix>3d</fix>
</trkpt>
<trkpt lat="-35.3621977" lon="149.1630075">
  <ele>654.93</ele>
  <time>2026-08-27T16:44:26Z</time>
  <course>174.07</course>
  <speed>22.41</speed>
  <fix>3d</fix>
</trkpt>
<trkpt lat="-35.3624293" lon="149.163019">
  <ele>653.64</ele>
  <time>2026-08-27T16:44:26Z</time>
  <course>179.35</course>
  <speed>22.619056125311687</speed>
  <fix>3d</fix>
</trkpt>
<trkpt lat="-35.3623999" lon="149.1630197">
  <ele>653.76</ele>
  <time>2026-08-27T16:44:26Z</time>
  <course>180.54</course>
  <speed>22.62</speed>
  <fix>3d</fix>
</trkpt>
<trkpt lat="-35.3626327" lon="149.1629966">
  <ele>652.53</ele>
  <time>2026-08-27T16:44:27Z</time>
  <course>186.28</course>
  <speed>22.723426238135836</speed>
  <fix>3d</fix>
</trkpt>
<trkpt lat="-35.3626028" lon="149.1630021">
  <ele>652.65</ele>
  <time>2026-08-27T16:44:27Z</time>
  <course>187.56</course>
  <speed>22.68</speed>
  <fix>3d</fix>
</trkpt>
<trkpt lat="-35.3628318" lon="149.1629448">
  <ele>651.36</ele>
  <time>2026-08-27T16:44:27Z</time>
  <course>193.02</course>
  <speed>22.66318600726738</speed>
  <fix>3d</fix>
</trkpt>
<trkpt lat="-35.3628027" lon="149.1629545">
  <ele>651.48</ele>
  <time>2026-08-27T16:44:27Z</time>
  <course>194.25</course>
  <speed>22.65</speed>
  <fix>3d</fix>
</trkpt>
<trkpt lat="-35.3630246" lon="149.1628688">
  <ele>649.99</ele>
  <time>2026-08-27T16:44:27Z</time>
  <course>196.11</course>
  <speed>22.51065969713016</speed>
  <fix>3d</fix>
</trkpt>
<trkpt lat="-35.3629968" lon="149.1628814">
  <ele>650.14</ele>
  <time>2026-08-27T16:44:27Z</time>
  <course>199.18</course>
  <speed>22.53</speed>
  <fix>3d</fix>
</trkpt>
<trkpt lat="-35.3632222" lon="149.1628138">
  <ele>647.5</ele>
  <time>2026-08-27T16:44:27Z</time>
  <course>187.88</course>
  <speed>22.954690152559238</speed>
  <fix>3d</fix>
</trkpt>
<trkpt lat="-35.3631922" lon="149.1628192">
  <ele>647.82</ele>
  <time>2026-08-27T16:44:27Z</time>
  <course>187.11</course>
  <speed>22.85</speed>
  <fix>3d</fix>
</trkpt>
<trkpt lat="-35.3634291" lon="149.1628247">
  <ele>645.32</ele>
  <time>2026-08-27T16:44:27Z</time>
  <course>174.43</course>
  <speed>23.08920526999576</speed>
  <fix>3d</fix>
</trkpt>
<trkpt lat="-35.363399" lon="149.1628205">
  <ele>645.62</ele>
  <time>2026-08-27T16:44:27Z</time>
  <course>173.21</course>
  <speed>23.11</speed>
  <fix>3d</fix>
</trkpt>
<trkpt lat="-35.3636285" lon="149.1628902">
  <ele>643.63</ele>
  <time>2026-08-27T16:44:27Z</time>
  <course>162.52</course>
  <speed>22.761252162392122</speed>
  <fix>3d</fix>
</trkpt>
<trkpt lat="-35.3636" lon="149.162878">
  <ele>643.85</ele>
  <time>2026-08-27T16:44:27Z</time>
  <course>161.17</course>
  <speed>22.83</speed>
  <fix>3d</fix>
</trkpt>
<trkpt lat="-35.3638127" lon="149.1629908">
  <ele>642.27</ele>
  <time>2026-08-27T16:44:27Z</time>
  <course>154.58</course>
  <speed>22.309955177005623</speed>
  <fix>3d</fix>
</trkpt>
<trkpt lat="-35.3637868" lon="149.1629744">
  <ele>642.47</ele>
  <time>2026-08-27T16:44:27Z</time>
  <course>153.59</course>
  <speed>22.38</speed>
  <fix>3d</fix>
</trkpt>
<trkpt lat="-35.3639862" lon="149.1631132">
  <ele>641.2</ele>
  <time>2026-08-27T16:44:27Z</time>
  <course>149.32</course>
  <speed>22.171986830232424</speed>
  <fix>3d</fix>
</trkpt>
<trkpt lat="-35.3639617" lon="149.163094">
  <ele>641.35</ele>
  <time>2026-08-27T16:44:27Z</time>
  <course>148.59</course>
  <speed>22.2</speed>
  <fix>3d</fix>
</trkpt>
<trkpt lat="-35.3641529" lon="149.1632462">
  <ele>640.38</ele>
  <time>2026-08-27T16:44:27Z</time>
  <course>146.62</course>
  <speed>22.174609353943534</speed>
  <fix>3d</fix>
</trkpt>
<trkpt lat="-35.3641293" lon="149.1632262">
  <ele>640.48</ele>
  <time>2026-08-27T16:44:27Z</time>
  <course>146.23</course>
  <speed>22.21</speed>
  <fix>3d</fix>
</trkpt>
<trkpt lat="-35.364319" lon="149.1633848">
  <ele>639.87</ele>
  <time>2026-08-27T16:44:27Z</time>
  <course>145.67</course>
  <speed>22.284173756278243</speed>
  <fix>3d</fix>
</trkpt>
<trkpt lat="-35.3642946" lon="149.1633639">
  <ele>639.91</ele>
  <time>2026-08-27T16:44:27Z</time>
  <course>145.6</course>
  <speed>22.27</speed>
  <fix>3d</fix>
</trkpt>
<trkpt lat="-35.3644845" lon="149.1635222">
  <ele>639.5</ele>
  <time>2026-08-27T16:44:27Z</time>
  <course>146.04</course>
  <speed>22.3488881155193</speed>
  <fix>3d</fix>
</trkpt>
<trkpt lat="-35.3644603" lon="149.1635021">
  <ele>639.53</ele>
  <time>2026-08-27T16:44:27Z</time>
  <course>146.09</course>
  <speed>22.37</speed>
  <fix>3d</fix>
</trkpt>
<trkpt lat="-35.3646541" lon="149.1636577">
  <ele>639.29</ele>
  <time>2026-08-27T16:44:27Z</time>
  <course>147.19</course>
  <speed>22.478979069343872</speed>
  <fix>3d</fix>
</trkpt>
<trkpt lat="-35.3646288" lon="149.1636378">
  <ele>639.3</ele>
  <time>2026-08-27T16:44:27Z</time>
  <course>147.33</course>
  <speed>22.46</speed>
  <fix>3d</fix>
</trkpt>
<trkpt lat="-35.364825" lon="149.1637875">
  <ele>639.17</ele>
  <time>2026-08-27T16:44:27Z</time>
  <course>148.52</course>
  <speed>22.48009341617601</speed>
  <fix>3d</fix>
</trkpt>
<trkpt lat="-35.3648" lon="149.1637691">
  <ele>639.17</ele>
  <time>2026-08-27T16:44:27Z</time>
  <course>148.63</course>
  <speed>22.52</speed>
  <fix>3d</fix>
</trkpt>
<trkpt lat="-35.3650006" lon="149.1639144">
  <ele>639.15</ele>
  <time>2026-08-27T16:44:27Z</time>
  <course>149.73</course>
  <speed>22.571869661151243</speed>
  <fix>3d</fix>
</trkpt>
<trkpt lat="-35.3649742" lon="149.163896">
  <ele>639.14</ele>
  <time>2026-08-27T16:44:27Z</time>
  <course>149.91</course>
  <speed>22.55</speed>
  <fix>3d</fix>
</trkpt>
<trkpt lat="-35.3651764" lon="149.1640356">
  <ele>639.15</ele>
  <time>2026-08-27T16:44:27Z</time>
  <course>149.03</course>
  <speed>22.543846166969825</speed>
  <fix>3d</fix>
</trkpt>
<trkpt lat="-35.3651507" lon="149.1640183">
  <ele>639.13</ele>
  <time>2026-08-27T16:44:27Z</time>
  <course>150.89</course>
  <speed>22.59</speed>
  <fix>3d</fix>
</trkpt>
<trkpt lat="-35.3653366" lon="149.1641949">
  <ele>639.01</ele>
  <time>2026-08-27T16:44:27Z</time>
  <course>130.39</course>
  <speed>23.764218901533454</speed>
  <fix>3d</fix>
</trkpt>
<trkpt lat="-35.3653154" lon="149.1641662">
  <ele>638.95</ele>
  <time>2026-08-27T16:44:27Z</time>
  <course>131.37</course>
  <speed>23.51</speed>
  <fix>3d</fix>
</trkpt>
<trkpt lat="-35.3654252" lon="149.1644311">
  <ele>640.4</ele>
  <time>2026-08-27T16:44:27Z</time>
  <course>112.19</course>
  <speed>23.62969741659846</speed>
  <fix>3d</fix>
</trkpt>
<trkpt lat="-35.365415" lon="149.164396">
  <ele>640.31</ele>
  <time>2026-08-27T16:44:27Z</time>
  <course>109.45</course>
  <speed>23.71</speed>
  <fix>3d</fix>
</trkpt>
<trkpt lat="-35.365467" lon="149.1646835">
  <ele>639.65</ele>
  <time>2026-08-27T16:44:27Z</time>
  <course>97.1</course>
  <speed>23.14766726907919</speed>
  <fix>3d</fix>
</trkpt>
<trkpt lat="-35.3654644" lon="149.1646458">
  <ele>639.81</ele>
  <time>2026-08-27T16:44:27Z</time>
  <course>95.93</course>
  <speed>23.12</speed>
  <fix>3d</fix>
</trkpt>
<trkpt lat="-35.3654494" lon="149.1649333">
  <ele>638.41</ele>
  <time>2026-08-27T16:44:27Z</time>
  <course>81.72</course>
  <speed>22.735346929396087</speed>
  <fix>3d</fix>
</trkpt>
<trkpt lat="-35.3654552" lon="149.1648978">
  <ele>638.63</ele>
  <time>2026-08-27T16:44:27Z</time>
  <course>79.93</course>
  <speed>22.79</speed>
  <fix>3d</fix>
</trkpt>
<trkpt lat="-35.3653873" lon="149.1651713">
  <ele>636.31</ele>
  <time>2026-08-27T16:44:27Z</time>
  <course>69.8</course>
  <speed>22.50489946656061</speed>
  <fix>3d</fix>
</trkpt>
<trkpt lat="-35.3653994" lon="149.1651368">
  <ele>636.66</ele>
  <time>2026-08-27T16:44:27Z</time>
  <course>68.23</course>
  <speed>22.47</speed>
  <fix>3d</fix>
</trkpt>
<trkpt lat="-35.3652938" lon="149.1653884">
  <ele>633.94</ele>
  <time>2026-08-27T16:44:27Z</time>
  <course>60.45</course>
  <speed>22.349948545802068</speed>
  <fix>3d</fix>
</trkpt>
<trkpt lat="-35.3653092" lon="149.1653576">
  <ele>634.32</ele>
  <time>2026-08-27T16:44:27Z</time>
  <course>59.61</course>
  <speed>22.45</speed>
  <fix>3d</fix>
</trkpt>
<trkpt lat="-35.3651783" lon="149.1655719">
  <ele>629.2</ele>
  <time>2026-08-27T16:44:27Z</time>
  <course>43.62</course>
  <speed>21.13699363674976</speed>
  <fix>3d</fix>
</trkpt>
<trkpt lat="-35.3651984" lon="149.1655488">
  <ele>629.91</ele>
  <time>2026-08-27T16:44:27Z</time>
  <course>44.23</course>
  <speed>20.87</speed>
  <fix>3d</fix>
</trkpt>
<trkpt lat="-35.3650066" lon="149.1656861">
  <ele>625.18</ele>
  <time>2026-08-27T16:44:27Z</time>
  <course>22.83</course>
  <speed>22.795635547183153</speed>
  <fix>3d</fix>
</trkpt>
<trkpt lat="-35.3650334" lon="149.1656734">
  <ele>625.82</ele>
  <time>2026-08-27T16:44:27Z</time>
  <course>21.88</course>
  <speed>22.56</speed>
  <fix>3d</fix>
</trkpt>
<trkpt lat="-35.3647954" lon="149.1657101">
  <ele>623.83</ele>
  <time>2026-08-27T16:44:27Z</time>
  <course>357.65</course>
  <speed>23.341379565055703</speed>
  <fix>3d</fix>
</trkpt>
<trkpt lat="-35.3648264" lon="149.1657139">
  <ele>623.84</ele>
  <time>2026-08-27T16:44:27Z</time>
  <course>355.93</course>
  <speed>23.64</speed>
  <fix>3d</fix>
</trkpt>
<trkpt lat="-35.3646061" lon="149.1656824">
  <ele>621.83</ele>
  <time>2026-08-27T16:44:27Z</time>
  <course>355.77</course>
  <speed>19.488583837724075</speed>
  <fix>3d</fix>
</trkpt>
<trkpt lat="-35.364632" lon="149.1656878">
  <ele>622.51</ele>
  <time>2026-08-27T16:44:27Z</time>
  <course>353.91</course>
  <speed>19.86</speed>
  <fix>3d</fix>
</trkpt>
<trkpt lat="-35.3644322" lon="149.1656433">
  <ele>616.35</ele>
  <time>2026-08-27T16:44:27Z</time>
  <course>347.55</course>
  <speed>20.435875317685806</speed>
  <fix>3d</fix>
</trkpt>
<trkpt lat="-35.364458" lon="149.1656525">
  <ele>617.06</ele>
  <time>2026-08-27T16:44:27Z</time>
  <course>346.28</course>
  <speed>20.27</speed>
  <fix>3d</fix>
</trkpt>
<trkpt lat="-35.3642546" lon="149.1655797">
  <ele>610.78</ele>
  <time>2026-08-27T16:44:27Z</time>
  <course>343.43</course>
  <speed>20.41471283168098</speed>
  <fix>3d</fix>
</trkpt>
<trkpt lat="-35.3642799" lon="149.1655903">
  <ele>611.62</ele>
  <time>2026-08-27T16:44:27Z</time>
  <course>342.77</course>
  <speed>20.51</speed>
  <fix>3d</fix>
</trkpt>
<trkpt lat="-35.3640777" lon="149.1655093">
  <ele>604.75</ele>
  <time>2026-08-27T16:44:27Z</time>
  <course>341.75</course>
  <speed>21.08290539750155</speed>
  <fix>3d</fix>
</trkpt>
<trkpt lat="-35.3641034" lon="149.1655202">
  <ele>605.53</ele>
  <time>2026-08-27T16:44:27Z</time>
  <course>341.56</course>
  <speed>21.04</speed>
  <fix>3d</fix>
</trkpt>
<trkpt lat="-35.3638982" lon="149.1654379">
  <ele>599.92</ele>
  <time>2026-08-27T16:44:27Z</time>
  <course>342.12</course>
  <speed>20.495072578549216</speed>
  <fix>3d</fix>
</trkpt>
<trkpt lat="-35.3639241" lon="149.1654479">
  <ele>600.63</ele>
  <time>2026-08-27T16:44:27Z</time>
  <course>342.33</course>
  <speed>20.64</speed>
  <fix>3d</fix>
</trkpt>
<trkpt lat="-35.3637296" lon="149.1653766">
  <ele>595.12</ele>
  <time>2026-08-27T16:44:27Z</time>
  <course>343.82</course>
  <speed>18.453509151378228</speed>
  <fix>3d</fix>
</trkpt>
<trkpt lat="-35.3637533" lon="149.1653846">
  <ele>595.81</ele>
  <time>2026-08-27T16:44:27Z</time>
  <course>344.07</course>
  <speed>18.76</speed>
  <fix>3d</fix>
</trkpt>
<trkpt lat="-35.3635766" lon="149.1653282">
  <ele>591.49</ele>
  <time>2026-08-27T16:44:27Z</time>
  <course>346.27</course>
  <speed>16.644894112009244</speed>
  <fix>3d</fix>
</trkpt>
<trkpt lat="-35.3635984" lon="149.1653342">
  <ele>591.93</ele>
  <time>2026-08-27T16:44:27Z</time>
  <course>346.39</course>
  <speed>16.94</speed>
  <fix>3d</fix>
</trkpt>
<trkpt lat="-35.3634391" lon="149.1652916">
  <ele>589.1</ele>
  <time>2026-08-27T16:44:27Z</time>
  <course>348.52</course>
  <speed>14.865752587743414</speed>
  <fix>3d</fix>
</trkpt>
<trkpt lat="-35.3634582" lon="149.165296">
  <ele>589.45</ele>
  <time>2026-08-27T16:44:27Z</time>
  <course>348.52</course>
  <speed>15.15</speed>
  <fix>3d</fix>
</trkpt>
<trkpt lat="-35.3633138" lon="149.1652639">
  <ele>587.6</ele>
  <time>2026-08-27T16:44:27Z</time>
  <course>350.5</course>
  <speed>13.321388816486065</speed>
  <fix>3d</fix>
</trkpt>
<trkpt lat="-35.3633311" lon="149.1652672">
  <ele>587.8</ele>
  <time>2026-08-27T16:44:27Z</time>
  <course>350.45</course>
  <speed>13.59</speed>
  <fix>3d</fix>
</trkpt>
<trkpt lat="-35.3632026" lon="149.1652433">
  <ele>586.92</ele>
  <time>2026-08-27T16:44:27Z</time>
  <course>352.06</course>
  <speed>11.698555466381308</speed>
  <fix>3d</fix>
</trkpt>
<trkpt lat="-35.3632176" lon="149.1652457">
  <ele>586.99</ele>
  <time>2026-08-27T16:44:27Z</time>
  <course>351.95</course>
  <speed>11.98</speed>
  <fix>3d</fix>
</trkpt>
<trkpt lat="-35.3631041" lon="149.1652276">
  <ele>586.56</ele>
  <time>2026-08-27T16:44:27Z</time>
  <course>353.17</course>
  <speed>10.273894101069954</speed>
  <fix>3d</fix>
</trkpt>
<trkpt lat="-35.3631176" lon="149.1652296">
  <ele>586.58</ele>
  <time>2026-08-27T16:44:27Z</time>
  <course>353.01</course>
  <speed>10.49</speed>
  <fix>3d</fix>
</trkpt>
<trkpt lat="-35.3630184" lon="149.1652156">
  <ele>586.37</ele>
  <time>2026-08-27T16:44:27Z</time>
  <course>353.97</course>
  <speed>8.942762436741793</speed>
  <fix>3d</fix>
</trkpt>
<trkpt lat="-35.3630301" lon="149.1652171">
  <ele>586.35</ele>
  <time>2026-08-27T16:44:27Z</time>
  <course>353.76</course>
  <speed>9.16</speed>
  <fix>3d</fix>
</trkpt>
<trkpt lat="-35.3629433" lon="149.165206">
  <ele>586.23</ele>
  <time>2026-08-27T16:44:27Z</time>
  <course>354.51</course>
  <speed>7.789152713870745</speed>
  <fix>3d</fix>
</trkpt>
<trkpt lat="-35.3629537" lon="149.1652073">
  <ele>586.2</ele>
  <time>2026-08-27T16:44:27Z</time>
  <course>354.25</course>
  <speed>7.95</speed>
  <fix>3d</fix>
</trkpt>
<trkpt lat="-35.3628775" lon="149.1651981">
  <ele>585.77</ele>
  <time>2026-08-27T16:44:27Z</time>
  <course>354.8</course>
  <speed>7.123496332560297</speed>
  <fix>3d</fix>
</trkpt>
<trkpt lat="-35.3628865" lon="149.1651993">
  <ele>585.81</ele>
  <time>2026-08-27T16:44:27Z</time>
  <course>354.51</course>
  <speed>7.19</speed>
  <fix>3d</fix>
</trkpt>
<trkpt lat="-35.3628117" lon="149.1651905">
  <ele>584.36</ele>
  <time>2026-08-27T16:44:28Z</time>
  <course>354.92</course>
  <speed>7.624073714229159</speed>
  <fix>3d</fix>
</trkpt>
<trkpt lat="-35.3628215" lon="149.1651917">
  <ele>584.55</ele>
  <time>2026-08-27T16:44:28Z</time>
  <course>354.6</course>
  <speed>7.51</speed>
  <fix>3d</fix>
</trkpt>
<trkpt lat="-35.3627484" lon="149.1651833">
  <ele>583.71</ele>
  <time>2026-08-27T16:44:28Z</time>
  <course>354.93</course>
  <speed>5.905666770145434</speed>
  <fix>3d</fix>
</trkpt>
<trkpt lat="-35.3627563" lon="149.1651843">
  <ele>583.68</ele>
  <time>2026-08-27T16:44:28Z</time>
  <course>354.71</course>
  <speed>6.25</speed>
  <fix>3d</fix>
</trkpt>
<trkpt lat="-35.3627042" lon="149.1651783">
  <ele>583.59</ele>
  <time>2026-08-27T16:44:28Z</time>
  <course>354.95</course>
  <speed>4.057831933434405</speed>
  <fix>3d</fix>
</trkpt>
<trkpt lat="-35.3627098" lon="149.165179">
  <ele>583.53</ele>
  <time>2026-08-27T16:44:28Z</time>
  <course>354.71</course>
  <speed>4.3</speed>
  <fix>3d</fix>
</trkpt>
<trkpt lat="-35.3626737" lon="149.1651748">
  <ele>583.49</ele>
  <time>2026-08-27T16:44:28Z</time>
  <course>354.96</course>
  <speed>2.8428506819739936</speed>
  <fix>3d</fix>
</trkpt>
<trkpt lat="-35.3626773" lon="149.1651752">
  <ele>583.43</ele>
  <time>2026-08-27T16:44:28Z</time>
  <course>354.71</course>
  <speed>3.03</speed>
  <fix>3d</fix>
</trkpt>
<trkpt lat="-35.3626518" lon="149.1651723">
  <ele>583.43</ele>
  <time>2026-08-27T16:44:28Z</time>
  <course>354.98</course>
  <speed>2.0289159667172023</speed>
  <fix>3d</fix>
</trkpt>
<trkpt lat="-35.3626543" lon="149.1651727">
  <ele>583.36</ele>
  <time>2026-08-27T16:44:28Z</time>
  <course>354.71</course>
  <speed>2.16</speed>
  <fix>3d</fix>
</trkpt>
<trkpt lat="-35.3626362" lon="149.1651706">
  <ele>583.36</ele>
  <time>2026-08-27T16:44:28Z</time>
  <course>354.99</course>
  <speed>1.4558159224297555</speed>
  <fix>3d</fix>
</trkpt>
<trkpt lat="-35.3626378" lon="149.1651708">
  <ele>583.3</ele>
  <time>2026-08-27T16:44:28Z</time>
  <course>354.71</course>
  <speed>1.56</speed>
  <fix>3d</fix>
</trkpt>
<trkpt lat="-35.3626246" lon="149.1651694">
  <ele>583.32</ele>
  <time>2026-08-27T16:44:28Z</time>
  <course>355.0</course>
  <speed>1.0638138934982941</speed>
  <fix>3d</fix>
</trkpt>
<trkpt lat="-35.3626259" lon="149.1651695">
  <ele>583.27</ele>
  <time>2026-08-27T16:44:28Z</time>
  <course>354.71</course>
  <speed>1.13</speed>
  <fix>3d</fix>
</trkpt>
<trkpt lat="-35.3626163" lon="149.1651685">
  <ele>583.29</ele>
  <time>2026-08-27T16:44:28Z</time>
  <course>355.01</course>
  <speed>0.772334124585985</speed>
  <fix>3d</fix>
</trkpt>
<trkpt lat="-35.3626172" lon="149.1651685">
  <ele>583.24</ele>
  <time>2026-08-27T16:44:28Z</time>
  <course>354.71</course>
  <speed>0.83</speed>
  <fix>3d</fix>
</trkpt>
<trkpt lat="-35.3626101" lon="149.1651678">
  <ele>583.26</ele>
  <time>2026-08-27T16:44:28Z</time>
  <course>355.01</course>
  <speed>0.5714017850864661</speed>
  <fix>3d</fix>
</trkpt>
<trkpt lat="-35.3626108" lon="149.1651678">
  <ele>583.22</ele>
  <time>2026-08-27T16:44:28Z</time>
  <course>354.71</course>
  <speed>0.6</speed>
  <fix>3d</fix>
</trkpt>
<trkpt lat="-35.3626056" lon="149.1651673">
  <ele>583.23</ele>
  <time>2026-08-27T16:44:28Z</time>
  <course>355.02</course>
  <speed>0.42107006542854597</speed>
  <fix>3d</fix>
</trkpt>
<trkpt lat="-35.362606" lon="149.1651672">
  <ele>583.21</ele>
  <time>2026-08-27T16:44:28Z</time>
  <course>354.71</course>
  <speed>0.44</speed>
  <fix>3d</fix>
</trkpt>
<trkpt lat="-35.3626023" lon="149.1651669">
  <ele>583.22</ele>
  <time>2026-08-27T16:44:28Z</time>
  <course>355.02</course>
  <speed>0.31064449134018135</speed>
  <fix>3d</fix>
</trkpt>
<trkpt lat="-35.3626026" lon="149.1651668">
  <ele>583.2</ele>
  <time>2026-08-27T16:44:28Z</time>
  <course>354.71</course>
  <speed>0.32</speed>
  <fix>3d</fix>
</trkpt>
<trkpt lat="-35.3625999" lon="149.1651666">
  <ele>583.21</ele>
  <time>2026-08-27T16:44:28Z</time>
  <course>355.03</course>
  <speed>0.22022715545545238</speed>
  <fix>3d</fix>
</trkpt>
<trkpt lat="-35.3626001" lon="149.1651666">
  <ele>583.19</ele>
  <time>2026-08-27T16:44:28Z</time>
  <course>354.71</course>
  <speed>0.24</speed>
  <fix>3d</fix>
</trkpt>
</trkseg>
</trk>
</gpx>
